Time,TemperatureF,DewpointF,PressureIn,WindDirection,WindDirectionDegrees,WindSpeedMPH,WindSpeedGustMPH,Humidity,HourlyPrecipIn,Conditions,Clouds,dailyrainin,SolarRadiationWatts/m^2,SoftwareType,DateUTC
2013-03-03 00:00:00,19.2,15.4,30.22,NW,306,3.3,4.4,85,0.00,,,0.00,0.00,VWS V14.01,2013-03-03 06:00:00,
2013-03-03 00:02:00,19.2,15.4,30.22,WNW,303,2.2,5.5,85,0.00,,,0.00,0.00,VWS V14.01,2013-03-03 06:02:00,
2013-03-03 00:04:00,19.2,15.4,30.21,NW,314,3.3,3.3,85,0.00,,,0.00,0.00,VWS V14.01,2013-03-03 06:04:00,
2013-03-03 00:05:00,19.2,15.4,30.21,NW,314,2.2,3.3,85,0.00,,,0.00,0.00,VWS V14.01,2013-03-03 06:05:00,
2013-03-03 00:06:00,19.2,15.4,30.22,NW,314,3.3,3.3,85,0.00,,,0.00,0.00,VWS V14.01,2013-03-03 06:06:00,
2013-03-03 00:07:00,19.1,15.3,30.22,NW,313,2.2,3.3,85,0.00,,,0.00,0.00,VWS V14.01,2013-03-03 06:07:00,
2013-03-03 00:11:00,19.1,15.3,30.21,NW,308,3.3,4.4,85,0.00,,,0.00,0.00,VWS V14.01,2013-03-03 06:11:00,
2013-03-03 00:12:00,19.1,15.3,30.21,NW,308,2.2,3.3,85,0.00,,,0.00,0.00,VWS V14.01,2013-03-03 06:12:00,
2013-03-03 00:16:00,19.0,15.2,30.21,NW,308,1.1,2.2,85,0.00,,,0.00,0.00,VWS V14.01,2013-03-03 06:16:00,
2013-03-03 00:17:00,19.1,15.3,30.21,NW,308,1.1,2.2,85,0.00,,,0.00,0.00,VWS V14.01,2013-03-03 06:17:00,
2013-03-03 00:18:00,19.1,15.3,30.21,NW,308,1.1,1.1,85,0.00,,,0.00,0.00,VWS V14.01,2013-03-03 06:18:00,
2013-03-03 00:19:00,19.0,15.2,30.21,NW,308,3.3,3.3,85,0.00,,,0.00,0.00,VWS V14.01,2013-03-03 06:19:00,
2013-03-03 00:21:00,19.0,15.2,30.21,NW,308,1.1,2.2,85,0.00,,,0.00,0.00,VWS V14.01,2013-03-03 06:21:00,
2013-03-03 00:22:00,19.0,15.2,30.21,NW,308,1.1,2.2,85,0.00,,,0.00,0.00,VWS V14.01,2013-03-03 06:22:00,
2013-03-03 00:25:00,19.0,15.2,30.21,NW,308,1.1,2.2,85,0.00,,,0.00,0.00,VWS V14.01,2013-03-03 06:25:00,
2013-03-03 00:27:00,18.9,15.1,30.21,NW,307,3.3,3.3,85,0.00,,,0.00,0.00,VWS V14.01,2013-03-03 06:27:00,
2013-03-03 00:28:00,18.9,15.1,30.21,WNW,303,5.5,5.5,85,0.00,,,0.00,0.00,VWS V14.01,2013-03-03 06:28:00,
2013-03-03 00:29:00,18.9,15.1,30.21,WNW,303,2.2,5.5,85,0.00,,,0.00,0.00,VWS V14.01,2013-03-03 06:29:00,
2013-03-03 00:31:00,18.9,15.1,30.21,WNW,303,2.2,4.4,85,0.00,,,0.00,0.00,VWS V14.01,2013-03-03 06:31:00,
2013-03-03 00:33:00,18.9,15.1,30.21,WNW,302,4.4,4.4,85,0.00,,,0.00,0.00,VWS V14.01,2013-03-03 06:33:00,
2013-03-03 00:34:00,18.8,15.1,30.21,WNW,303,3.3,3.3,85,0.00,,,0.00,0.00,VWS V14.01,2013-03-03 06:34:00,
2013-03-03 00:37:00,18.8,15.1,30.21,WNW,299,2.2,3.3,85,0.00,,,0.00,0.00,VWS V14.01,2013-03-03 06:37:00,
2013-03-03 00:38:00,18.8,15.1,30.21,WNW,299,3.3,4.4,85,0.00,,,0.00,0.00,VWS V14.01,2013-03-03 06:38:00,
2013-03-03 00:39:00,18.8,15.1,30.21,NW,304,3.3,3.3,85,0.00,,,0.00,0.00,VWS V14.01,2013-03-03 06:39:00,
2013-03-03 00:42:00,18.7,14.9,30.20,WNW,299,3.3,3.3,85,0.00,,,0.00,0.00,VWS V14.01,2013-03-03 06:42:00,
2013-03-03 00:43:00,18.7,14.9,30.20,WNW,299,5.5,5.5,85,0.00,,,0.00,0.00,VWS V14.01,2013-03-03 06:43:00,
2013-03-03 00:44:00,18.6,14.9,30.21,WNW,298,1.1,2.2,85,0.00,,,0.00,0.00,VWS V14.01,2013-03-03 06:44:00,
2013-03-03 00:45:00,18.6,14.9,30.21,WNW,296,4.4,4.4,85,0.00,,,0.00,0.00,VWS V14.01,2013-03-03 06:45:00,
2013-03-03 00:47:00,18.6,14.9,30.21,WNW,295,3.3,3.3,85,0.00,,,0.00,0.00,VWS V14.01,2013-03-03 06:47:00,
2013-03-03 00:48:00,18.6,14.9,30.21,NW,310,3.3,4.4,85,0.00,,,0.00,0.00,VWS V14.01,2013-03-03 06:48:00,
2013-03-03 00:50:00,18.6,14.9,30.20,WNW,300,2.2,5.5,85,0.00,,,0.00,0.00,VWS V14.01,2013-03-03 06:50:00,
2013-03-03 00:52:00,18.5,14.8,30.20,WNW,300,4.4,4.4,85,0.00,,,0.00,0.00,VWS V14.01,2013-03-03 06:52:00,
2013-03-03 00:53:00,18.5,14.8,30.20,NW,310,3.3,4.4,85,0.00,,,0.00,0.00,VWS V14.01,2013-03-03 06:53:00,
2013-03-03 00:55:00,18.4,14.9,30.20,WNW,303,2.2,3.3,86,0.00,,,0.00,0.00,VWS V14.01,2013-03-03 06:55:00,
2013-03-03 00:56:00,18.5,15.0,30.20,WNW,303,1.1,3.3,86,0.00,,,0.00,0.00,VWS V14.01,2013-03-03 06:56:00,
2013-03-03 00:58:00,18.4,14.9,30.20,WNW,300,3.3,3.3,86,0.00,,,0.00,0.00,VWS V14.01,2013-03-03 06:58:00,
2013-03-03 01:00:00,18.4,14.9,30.20,WNW,299,3.3,3.3,86,0.00,,,0.00,0.00,VWS V14.01,2013-03-03 07:00:00,
2013-03-03 01:01:00,18.3,14.8,30.20,WNW,299,4.4,4.4,86,0.00,,,0.00,0.00,VWS V14.01,2013-03-03 07:01:00,
2013-03-03 01:03:00,18.3,14.8,30.21,WNW,299,3.3,4.4,86,0.00,,,0.00,0.00,VWS V14.01,2013-03-03 07:03:00,
2013-03-03 01:04:00,18.3,14.8,30.21,WNW,299,3.3,4.4,86,0.00,,,0.00,0.00,VWS V14.01,2013-03-03 07:04:00,
2013-03-03 01:06:00,18.2,14.7,30.20,WNW,303,2.2,4.4,86,0.00,,,0.00,0.00,VWS V14.01,2013-03-03 07:06:00,
2013-03-03 01:09:00,18.2,14.7,30.20,WNW,303,4.4,4.4,86,0.00,,,0.00,0.00,VWS V14.01,2013-03-03 07:09:00,
2013-03-03 01:10:00,18.2,14.7,30.21,WNW,293,4.4,4.4,86,0.00,,,0.00,0.00,VWS V14.01,2013-03-03 07:10:00,
2013-03-03 01:11:00,18.2,14.7,30.21,WNW,297,4.4,4.4,86,0.00,,,0.00,0.00,VWS V14.01,2013-03-03 07:11:00,
2013-03-03 01:12:00,18.2,14.7,30.21,WNW,297,3.3,3.3,86,0.00,,,0.00,0.00,VWS V14.01,2013-03-03 07:12:00,
2013-03-03 01:14:00,18.1,14.6,30.20,WNW,301,3.3,3.3,86,0.00,,,0.00,0.00,VWS V14.01,2013-03-03 07:14:00,
2013-03-03 01:15:00,18.1,14.6,30.20,WNW,301,3.3,3.3,86,0.00,,,0.00,0.00,VWS V14.01,2013-03-03 07:15:00,
2013-03-03 01:16:00,18.1,14.6,30.20,WNW,299,2.2,3.3,86,0.00,,,0.00,0.00,VWS V14.01,2013-03-03 07:16:00,
2013-03-03 01:17:00,18.1,14.6,30.20,WNW,293,2.2,3.3,86,0.00,,,0.00,0.00,VWS V14.01,2013-03-03 07:17:00,
2013-03-03 01:20:00,18.0,14.5,30.20,WNW,289,3.3,5.5,86,0.00,,,0.00,0.00,VWS V14.01,2013-03-03 07:20:00,
2013-03-03 01:22:00,18.0,14.5,30.20,WNW,288,1.1,2.2,86,0.00,,,0.00,0.00,VWS V14.01,2013-03-03 07:22:00,
2013-03-03 01:23:00,18.0,14.5,30.20,WNW,288,2.2,3.3,86,0.00,,,0.00,0.00,VWS V14.01,2013-03-03 07:23:00,
2013-03-03 01:25:00,17.9,14.4,30.20,WNW,297,2.2,5.5,86,0.00,,,0.00,0.00,VWS V14.01,2013-03-03 07:25:00,
2013-03-03 01:27:00,17.9,14.4,30.20,WNW,295,3.3,3.3,86,0.00,,,0.00,0.00,VWS V14.01,2013-03-03 07:27:00,
2013-03-03 01:28:00,17.9,14.4,30.20,WNW,295,2.2,3.3,86,0.00,,,0.00,0.00,VWS V14.01,2013-03-03 07:28:00,
2013-03-03 01:31:00,17.9,14.4,30.20,WNW,294,2.2,3.3,86,0.00,,,0.00,0.00,VWS V14.01,2013-03-03 07:31:00,
2013-03-03 01:32:00,17.8,14.3,30.20,NW,305,2.2,3.3,86,0.00,,,0.00,0.00,VWS V14.01,2013-03-03 07:32:00,
2013-03-03 01:33:00,17.8,14.3,30.20,WNW,302,2.2,2.2,86,0.00,,,0.00,0.00,VWS V14.01,2013-03-03 07:33:00,
2013-03-03 01:36:00,17.7,14.2,30.20,WNW,293,3.3,6.6,86,0.00,,,0.00,0.00,VWS V14.01,2013-03-03 07:36:00,
2013-03-03 01:39:00,17.7,14.2,30.20,WNW,295,5.5,5.5,86,0.00,,,0.00,0.00,VWS V14.01,2013-03-03 07:39:00,
2013-03-03 01:41:00,17.7,14.2,30.20,WNW,288,3.3,5.5,86,0.00,,,0.00,0.00,VWS V14.01,2013-03-03 07:41:00,
2013-03-03 01:42:00,17.6,14.1,30.20,WNW,295,4.4,4.4,86,0.00,,,0.00,0.00,VWS V14.01,2013-03-03 07:42:00,
2013-03-03 01:45:00,17.6,14.1,30.19,WNW,291,6.6,6.6,86,0.00,,,0.00,0.00,VWS V14.01,2013-03-03 07:45:00,
2013-03-03 01:46:00,17.6,14.1,30.19,WNW,300,3.3,5.5,86,0.00,,,0.00,0.00,VWS V14.01,2013-03-03 07:46:00,
2013-03-03 01:47:00,17.6,14.1,30.19,WNW,289,4.4,5.5,86,0.00,,,0.00,0.00,VWS V14.01,2013-03-03 07:47:00,
2013-03-03 01:50:00,17.5,14.0,30.19,WNW,286,3.3,4.4,86,0.00,,,0.00,0.00,VWS V14.01,2013-03-03 07:50:00,
2013-03-03 01:52:00,17.5,14.0,30.19,WNW,294,6.6,6.6,86,0.00,,,0.00,0.00,VWS V14.01,2013-03-03 07:52:00,
2013-03-03 01:53:00,17.5,14.0,30.19,WNW,289,5.5,5.5,86,0.00,,,0.00,0.00,VWS V14.01,2013-03-03 07:53:00,
2013-03-03 01:55:00,17.5,14.0,30.19,WNW,296,4.4,5.5,86,0.00,,,0.00,0.00,VWS V14.01,2013-03-03 07:55:00,
2013-03-03 01:58:00,17.4,13.9,30.19,WNW,283,3.3,4.4,86,0.00,,,0.00,0.00,VWS V14.01,2013-03-03 07:58:00,
2013-03-03 02:02:00,17.4,13.9,30.19,WNW,285,6.6,8.8,86,0.00,,,0.00,0.00,VWS V14.01,2013-03-03 08:02:00,
2013-03-03 02:03:00,17.4,13.9,30.19,WNW,296,7.7,7.7,86,0.00,,,0.00,0.00,VWS V14.01,2013-03-03 08:03:00,
2013-03-03 02:04:00,17.4,13.9,30.19,NW,314,8.8,8.8,86,0.00,,,0.00,0.00,VWS V14.01,2013-03-03 08:04:00,
2013-03-03 02:05:00,17.4,13.9,30.19,NW,306,5.5,6.6,86,0.00,,,0.00,0.00,VWS V14.01,2013-03-03 08:05:00,
2013-03-03 02:08:00,17.4,13.9,30.19,NW,309,4.4,7.7,86,0.00,,,0.00,0.00,VWS V14.01,2013-03-03 08:08:00,
2013-03-03 02:09:00,17.3,13.8,30.19,WNW,301,6.6,7.7,86,0.00,,,0.00,0.00,VWS V14.01,2013-03-03 08:09:00,
2013-03-03 02:11:00,17.3,13.8,30.19,WNW,291,4.4,8.8,86,0.00,,,0.00,0.00,VWS V14.01,2013-03-03 08:11:00,
2013-03-03 02:14:00,17.3,13.8,30.19,WNW,296,5.5,6.6,86,0.00,,,0.00,0.00,VWS V14.01,2013-03-03 08:14:00,
2013-03-03 02:15:00,17.3,13.8,30.19,WNW,301,8.8,8.8,86,0.00,,,0.00,0.00,VWS V14.01,2013-03-03 08:15:00,
2013-03-03 02:16:00,17.3,13.8,30.19,WNW,289,5.5,7.7,86,0.00,,,0.00,0.00,VWS V14.01,2013-03-03 08:16:00,
2013-03-03 02:19:00,17.3,13.8,30.19,WNW,303,6.6,8.8,86,0.00,,,0.00,0.00,VWS V14.01,2013-03-03 08:19:00,
2013-03-03 02:20:00,17.3,13.8,30.19,WNW,292,5.5,7.7,86,0.00,,,0.00,0.00,VWS V14.01,2013-03-03 08:20:00,
2013-03-03 02:21:00,17.3,13.8,30.19,NW,310,4.4,7.7,86,0.00,,,0.00,0.00,VWS V14.01,2013-03-03 08:21:00,
2013-03-03 02:24:00,17.3,13.8,30.19,NW,309,5.5,5.5,86,0.00,,,0.00,0.00,VWS V14.01,2013-03-03 08:24:00,
2013-03-03 02:26:00,17.3,14.1,30.19,NW,305,5.5,5.5,87,0.00,,,0.00,0.00,VWS V14.01,2013-03-03 08:26:00,
2013-03-03 02:27:00,17.3,14.1,30.19,WNW,302,4.4,6.6,87,0.00,,,0.00,0.00,VWS V14.01,2013-03-03 08:27:00,
2013-03-03 02:30:00,17.3,14.1,30.19,NW,314,4.4,5.5,87,0.00,,,0.00,0.00,VWS V14.01,2013-03-03 08:30:00,
2013-03-03 02:31:00,17.2,14.0,30.19,NW,304,5.5,8.8,87,0.00,,,0.00,0.00,VWS V14.01,2013-03-03 08:31:00,
2013-03-03 02:32:00,17.2,13.7,30.19,NW,320,4.4,4.4,86,0.00,,,0.00,0.00,VWS V14.01,2013-03-03 08:32:00,
2013-03-03 02:35:00,17.2,13.7,30.18,WNW,294,5.5,5.5,86,0.00,,,0.00,0.00,VWS V14.01,2013-03-03 08:35:00,
2013-03-03 02:36:00,17.2,13.7,30.18,NW,316,4.4,5.5,86,0.00,,,0.00,0.00,VWS V14.01,2013-03-03 08:36:00,
2013-03-03 02:38:00,17.2,13.7,30.18,WNW,292,4.4,5.5,86,0.00,,,0.00,0.00,VWS V14.01,2013-03-03 08:38:00,
2013-03-03 02:40:00,17.2,14.0,30.18,NW,304,5.5,6.6,87,0.00,,,0.00,0.00,VWS V14.01,2013-03-03 08:40:00,
2013-03-03 02:41:00,17.2,14.0,30.18,WNW,295,4.4,6.6,87,0.00,,,0.00,0.00,VWS V14.01,2013-03-03 08:41:00,
2013-03-03 02:42:00,17.2,14.0,30.18,WNW,295,3.3,7.7,87,0.00,,,0.00,0.00,VWS V14.01,2013-03-03 08:42:00,
2013-03-03 02:44:00,17.1,13.9,30.18,WNW,299,4.4,5.5,87,0.00,,,0.00,0.00,VWS V14.01,2013-03-03 08:44:00,
2013-03-03 02:45:00,17.1,13.9,30.18,NW,318,5.5,5.5,87,0.00,,,0.00,0.00,VWS V14.01,2013-03-03 08:45:00,
2013-03-03 02:46:00,17.1,13.9,30.18,WNW,299,4.4,6.6,87,0.00,,,0.00,0.00,VWS V14.01,2013-03-03 08:46:00,
2013-03-03 02:48:00,17.1,13.9,30.18,NW,314,5.5,5.5,87,0.00,,,0.00,0.00,VWS V14.01,2013-03-03 08:48:00,
2013-03-03 02:49:00,17.1,13.9,30.18,WNW,294,5.5,7.7,87,0.00,,,0.00,0.00,VWS V14.01,2013-03-03 08:49:00,
2013-03-03 02:51:00,17.1,13.9,30.18,WNW,293,7.7,7.7,87,0.00,,,0.00,0.00,VWS V14.01,2013-03-03 08:51:00,
2013-03-03 02:53:00,17.0,13.8,30.18,WNW,290,4.4,7.7,87,0.00,,,0.00,0.00,VWS V14.01,2013-03-03 08:53:00,
2013-03-03 02:55:00,17.0,13.8,30.18,WNW,300,4.4,6.6,87,0.00,,,0.00,0.00,VWS V14.01,2013-03-03 08:55:00,
2013-03-03 02:56:00,17.0,13.8,30.18,NW,326,4.4,4.4,87,0.00,,,0.00,0.00,VWS V14.01,2013-03-03 08:56:00,
2013-03-03 02:57:00,17.0,13.8,30.18,WNW,296,5.5,5.5,87,0.00,,,0.00,0.00,VWS V14.01,2013-03-03 08:57:00,
2013-03-03 02:59:00,17.0,13.8,30.18,NW,312,7.7,7.7,87,0.00,,,0.00,0.00,VWS V14.01,2013-03-03 08:59:00,
2013-03-03 03:01:00,17.0,13.8,30.18,WNW,295,6.6,6.6,87,0.00,,,0.00,0.00,VWS V14.01,2013-03-03 09:01:00,
2013-03-03 03:03:00,16.9,13.7,30.18,WNW,301,7.7,7.7,87,0.00,,,0.00,0.00,VWS V14.01,2013-03-03 09:03:00,
2013-03-03 03:04:00,16.9,13.7,30.18,NW,305,4.4,7.7,87,0.00,,,0.00,0.00,VWS V14.01,2013-03-03 09:04:00,
2013-03-03 03:06:00,16.9,13.7,30.18,NW,326,5.5,6.6,87,0.00,,,0.00,0.00,VWS V14.01,2013-03-03 09:06:00,
2013-03-03 03:07:00,16.9,13.7,30.18,WNW,301,4.4,8.8,87,0.00,,,0.00,0.00,VWS V14.01,2013-03-03 09:07:00,
2013-03-03 03:08:00,16.9,13.7,30.18,NW,310,5.5,6.6,87,0.00,,,0.00,0.00,VWS V14.01,2013-03-03 09:08:00,
2013-03-03 03:11:00,16.9,13.7,30.18,WNW,299,5.5,7.7,87,0.00,,,0.00,0.00,VWS V14.01,2013-03-03 09:11:00,
2013-03-03 03:13:00,16.9,13.7,30.18,WNW,301,5.5,6.6,87,0.00,,,0.00,0.00,VWS V14.01,2013-03-03 09:13:00,
2013-03-03 03:14:00,16.9,13.7,30.18,NW,307,4.4,5.5,87,0.00,,,0.00,0.00,VWS V14.01,2013-03-03 09:14:00,
2013-03-03 03:17:00,16.8,13.6,30.18,WNW,299,4.4,4.4,87,0.00,,,0.00,0.00,VWS V14.01,2013-03-03 09:17:00,
2013-03-03 03:18:00,16.8,13.6,30.17,WNW,303,3.3,5.5,87,0.00,,,0.00,0.00,VWS V14.01,2013-03-03 09:18:00,
2013-03-03 03:19:00,16.8,13.6,30.17,WNW,303,3.3,5.5,87,0.00,,,0.00,0.00,VWS V14.01,2013-03-03 09:19:00,
2013-03-03 03:23:00,16.8,13.6,30.17,WNW,301,3.3,4.4,87,0.00,,,0.00,0.00,VWS V14.01,2013-03-03 09:23:00,
2013-03-03 03:24:00,16.8,13.6,30.17,NW,304,5.5,6.6,87,0.00,,,0.00,0.00,VWS V14.01,2013-03-03 09:24:00,
2013-03-03 03:25:00,16.8,13.6,30.18,WNW,296,6.6,6.6,87,0.00,,,0.00,0.00,VWS V14.01,2013-03-03 09:25:00,
2013-03-03 03:28:00,16.8,13.6,30.18,NW,312,4.4,4.4,87,0.00,,,0.00,0.00,VWS V14.01,2013-03-03 09:28:00,
2013-03-03 03:29:00,16.8,13.6,30.18,West,280,5.5,5.5,87,0.00,,,0.00,0.00,VWS V14.01,2013-03-03 09:29:00,
2013-03-03 03:30:00,16.8,13.6,30.18,NW,304,6.6,6.6,87,0.00,,,0.00,0.00,VWS V14.01,2013-03-03 09:30:00,
2013-03-03 03:33:00,16.7,13.5,30.18,NW,314,4.4,4.4,87,0.00,,,0.00,0.00,VWS V14.01,2013-03-03 09:33:00,
2013-03-03 03:34:00,16.7,13.5,30.18,WNW,296,3.3,4.4,87,0.00,,,0.00,0.00,VWS V14.01,2013-03-03 09:34:00,
2013-03-03 03:36:00,16.7,13.5,30.18,NW,312,3.3,4.4,87,0.00,,,0.00,0.00,VWS V14.01,2013-03-03 09:36:00,
2013-03-03 03:39:00,16.7,13.5,30.18,WNW,298,5.5,5.5,87,0.00,,,0.00,0.00,VWS V14.01,2013-03-03 09:39:00,
2013-03-03 03:40:00,16.7,13.5,30.18,WNW,300,4.4,6.6,87,0.00,,,0.00,0.00,VWS V14.01,2013-03-03 09:40:00,
2013-03-03 03:41:00,16.7,13.5,30.18,WNW,303,5.5,7.7,87,0.00,,,0.00,0.00,VWS V14.01,2013-03-03 09:41:00,
2013-03-03 03:45:00,16.6,13.4,30.18,WNW,293,4.4,5.5,87,0.00,,,0.00,0.00,VWS V14.01,2013-03-03 09:45:00,
2013-03-03 03:46:00,16.6,13.4,30.18,WNW,301,2.2,5.5,87,0.00,,,0.00,0.00,VWS V14.01,2013-03-03 09:46:00,
2013-03-03 03:50:00,16.6,13.4,30.18,WNW,291,5.5,5.5,87,0.00,,,0.00,0.00,VWS V14.01,2013-03-03 09:50:00,
2013-03-03 03:51:00,16.6,13.4,30.18,WNW,302,5.5,7.7,87,0.00,,,0.00,0.00,VWS V14.01,2013-03-03 09:51:00,
2013-03-03 03:52:00,16.6,13.4,30.18,WNW,299,5.5,7.7,87,0.00,,,0.00,0.00,VWS V14.01,2013-03-03 09:52:00,
2013-03-03 03:55:00,16.6,13.4,30.18,WNW,297,3.3,4.4,87,0.00,,,0.00,0.00,VWS V14.01,2013-03-03 09:55:00,
2013-03-03 03:57:00,16.5,13.3,30.18,WNW,299,3.3,6.6,87,0.00,,,0.00,0.00,VWS V14.01,2013-03-03 09:57:00,
2013-03-03 04:00:00,16.5,13.3,30.18,WNW,289,5.5,5.5,87,0.00,,,0.00,0.00,VWS V14.01,2013-03-03 10:00:00,
2013-03-03 04:02:00,16.5,13.3,30.18,WNW,287,3.3,4.4,87,0.00,,,0.00,0.00,VWS V14.01,2013-03-03 10:02:00,
2013-03-03 04:04:00,16.5,13.3,30.18,WNW,298,3.3,5.5,87,0.00,,,0.00,0.00,VWS V14.01,2013-03-03 10:04:00,
2013-03-03 04:06:00,16.5,13.3,30.18,WNW,284,4.4,5.5,87,0.00,,,0.00,0.00,VWS V14.01,2013-03-03 10:06:00,
2013-03-03 04:08:00,16.5,13.3,30.17,WNW,298,4.4,5.5,87,0.00,,,0.00,0.00,VWS V14.01,2013-03-03 10:08:00,
2013-03-03 04:09:00,16.5,13.3,30.17,West,277,2.2,3.3,87,0.00,,,0.00,0.00,VWS V14.01,2013-03-03 10:09:00,
2013-03-03 04:12:00,16.4,13.2,30.18,WNW,295,3.3,4.4,87,0.00,,,0.00,0.00,VWS V14.01,2013-03-03 10:12:00,
2013-03-03 04:13:00,16.4,13.2,30.18,WNW,293,3.3,3.3,87,0.00,,,0.00,0.00,VWS V14.01,2013-03-03 10:13:00,
2013-03-03 04:14:00,16.4,13.2,30.18,WNW,289,2.2,3.3,87,0.00,,,0.00,0.00,VWS V14.01,2013-03-03 10:14:00,
2013-03-03 04:17:00,16.4,13.2,30.18,WNW,292,2.2,2.2,87,0.00,,,0.00,0.00,VWS V14.01,2013-03-03 10:17:00,
2013-03-03 04:18:00,16.4,13.2,30.17,WNW,302,1.1,1.1,87,0.00,,,0.00,0.00,VWS V14.01,2013-03-03 10:18:00,
2013-03-03 04:19:00,16.4,13.2,30.17,WNW,302,2.2,2.2,87,0.00,,,0.00,0.00,VWS V14.01,2013-03-03 10:19:00,
2013-03-03 04:22:00,16.4,13.2,30.18,WNW,297,2.2,3.3,87,0.00,,,0.00,0.00,VWS V14.01,2013-03-03 10:22:00,
2013-03-03 04:24:00,16.3,13.1,30.18,WNW,296,4.4,4.4,87,0.00,,,0.00,0.00,VWS V14.01,2013-03-03 10:24:00,
2013-03-03 04:27:00,16.3,13.1,30.17,WNW,294,3.3,3.3,87,0.00,,,0.00,0.00,VWS V14.01,2013-03-03 10:27:00,
2013-03-03 04:29:00,16.3,13.1,30.17,WNW,301,3.3,5.5,87,0.00,,,0.00,0.00,VWS V14.01,2013-03-03 10:29:00,
2013-03-03 04:30:00,16.3,13.1,30.18,WNW,301,3.3,4.4,87,0.00,,,0.00,0.00,VWS V14.01,2013-03-03 10:30:00,
2013-03-03 04:33:00,16.2,13.0,30.18,WNW,297,2.2,3.3,87,0.00,,,0.00,0.00,VWS V14.01,2013-03-03 10:33:00,
2013-03-03 04:34:00,16.2,13.0,30.17,WNW,298,2.2,2.2,87,0.00,,,0.00,0.00,VWS V14.01,2013-03-03 10:34:00,
2013-03-03 04:35:00,16.2,13.0,30.17,WNW,299,3.3,4.4,87,0.00,,,0.00,0.00,VWS V14.01,2013-03-03 10:35:00,
2013-03-03 04:38:00,16.2,13.0,30.17,WNW,292,3.3,5.5,87,0.00,,,0.00,0.00,VWS V14.01,2013-03-03 10:38:00,
2013-03-03 04:40:00,16.1,12.9,30.18,WNW,301,4.4,4.4,87,0.00,,,0.00,0.00,VWS V14.01,2013-03-03 10:40:00,
2013-03-03 04:41:00,16.1,12.9,30.18,WNW,291,4.4,4.4,87,0.00,,,0.00,0.00,VWS V14.01,2013-03-03 10:41:00,
2013-03-03 04:43:00,16.1,12.9,30.18,WNW,291,5.5,5.5,87,0.00,,,0.00,0.00,VWS V14.01,2013-03-03 10:43:00,
2013-03-03 04:45:00,16.1,13.2,30.18,WNW,285,4.4,4.4,88,0.00,,,0.00,0.00,VWS V14.01,2013-03-03 10:45:00,
2013-03-03 04:46:00,16.1,12.9,30.18,WNW,289,3.3,5.5,87,0.00,,,0.00,0.00,VWS V14.01,2013-03-03 10:46:00,
2013-03-03 04:48:00,16.1,12.9,30.18,WNW,293,2.2,4.4,87,0.00,,,0.00,0.00,VWS V14.01,2013-03-03 10:48:00,
2013-03-03 04:50:00,16.0,12.8,30.18,WNW,301,2.2,4.4,87,0.00,,,0.00,0.00,VWS V14.01,2013-03-03 10:50:00,
2013-03-03 04:51:00,16.0,12.8,30.18,WNW,300,4.4,4.4,87,0.00,,,0.00,0.00,VWS V14.01,2013-03-03 10:51:00,
2013-03-03 04:52:00,16.0,13.1,30.18,WNW,291,3.3,4.4,88,0.00,,,0.00,0.00,VWS V14.01,2013-03-03 10:52:00,
2013-03-03 04:54:00,15.9,13.0,30.18,WNW,286,2.2,3.3,88,0.00,,,0.00,0.00,VWS V14.01,2013-03-03 10:54:00,
2013-03-03 04:56:00,15.9,13.0,30.18,West,281,3.3,3.3,88,0.00,,,0.00,0.00,VWS V14.01,2013-03-03 10:56:00,
2013-03-03 04:57:00,15.9,13.0,30.18,WNW,290,3.3,3.3,88,0.00,,,0.00,0.00,VWS V14.01,2013-03-03 10:57:00,
2013-03-03 04:59:00,15.9,13.0,30.18,WNW,295,3.3,3.3,88,0.00,,,0.00,0.00,VWS V14.01,2013-03-03 10:59:00,
2013-03-03 05:01:00,15.9,13.0,30.18,WNW,298,2.2,3.3,88,0.00,,,0.00,0.00,VWS V14.01,2013-03-03 11:01:00,
2013-03-03 05:02:00,15.9,13.0,30.18,WNW,299,3.3,3.3,88,0.00,,,0.00,0.00,VWS V14.01,2013-03-03 11:02:00,
2013-03-03 05:04:00,15.9,13.0,30.18,WNW,291,1.1,3.3,88,0.00,,,0.00,0.00,VWS V14.01,2013-03-03 11:04:00,
2013-03-03 05:06:00,15.8,12.9,30.18,WNW,292,2.2,2.2,88,0.00,,,0.00,0.00,VWS V14.01,2013-03-03 11:06:00,
2013-03-03 05:07:00,15.8,12.9,30.18,WNW,295,2.2,3.3,88,0.00,,,0.00,0.00,VWS V14.01,2013-03-03 11:07:00,
2013-03-03 05:08:00,15.8,12.9,30.18,WNW,303,2.2,3.3,88,0.00,,,0.00,0.00,VWS V14.01,2013-03-03 11:08:00,
2013-03-03 05:09:00,15.8,12.9,30.18,WNW,283,3.3,3.3,88,0.00,,,0.00,0.00,VWS V14.01,2013-03-03 11:09:00,
2013-03-03 05:12:00,15.8,12.9,30.18,WNW,285,2.2,3.3,88,0.00,,,0.00,0.00,VWS V14.01,2013-03-03 11:12:00,
2013-03-03 05:14:00,15.7,12.8,30.18,WNW,291,3.3,4.4,88,0.00,,,0.00,0.00,VWS V14.01,2013-03-03 11:14:00,
2013-03-03 05:15:00,15.7,12.8,30.18,WNW,294,3.3,4.4,88,0.00,,,0.00,0.00,VWS V14.01,2013-03-03 11:15:00,
2013-03-03 05:17:00,15.7,12.8,30.18,West,273,1.1,5.5,88,0.00,,,0.00,0.00,VWS V14.01,2013-03-03 11:17:00,
2013-03-03 05:18:00,15.7,12.8,30.18,WNW,303,3.3,3.3,88,0.00,,,0.00,0.00,VWS V14.01,2013-03-03 11:18:00,
2013-03-03 05:20:00,15.6,12.7,30.18,WNW,288,2.2,4.4,88,0.00,,,0.00,0.00,VWS V14.01,2013-03-03 11:20:00,
2013-03-03 05:23:00,15.6,12.7,30.19,WNW,284,2.2,4.4,88,0.00,,,0.00,0.00,VWS V14.01,2013-03-03 11:23:00,
2013-03-03 05:25:00,15.5,12.6,30.19,WNW,293,3.3,5.5,88,0.00,,,0.00,0.00,VWS V14.01,2013-03-03 11:25:00,
2013-03-03 05:28:00,15.5,12.6,30.19,WNW,298,2.2,3.3,88,0.00,,,0.00,0.00,VWS V14.01,2013-03-03 11:28:00,
2013-03-03 05:30:00,15.5,12.6,30.19,WNW,299,2.2,2.2,88,0.00,,,0.00,0.00,VWS V14.01,2013-03-03 11:30:00,
2013-03-03 05:31:00,15.5,12.6,30.19,WNW,295,4.4,4.4,88,0.00,,,0.00,0.00,VWS V14.01,2013-03-03 11:31:00,
2013-03-03 05:33:00,15.5,12.6,30.19,WNW,296,3.3,4.4,88,0.00,,,0.00,0.00,VWS V14.01,2013-03-03 11:33:00,
2013-03-03 05:34:00,15.4,12.5,30.19,WNW,301,3.3,4.4,88,0.00,,,0.00,0.00,VWS V14.01,2013-03-03 11:34:00,
2013-03-03 05:35:00,15.4,12.5,30.19,WNW,285,5.5,5.5,88,0.00,,,0.00,0.00,VWS V14.01,2013-03-03 11:35:00,
2013-03-03 05:36:00,15.4,12.5,30.19,WNW,299,3.3,4.4,88,0.00,,,0.00,0.00,VWS V14.01,2013-03-03 11:36:00,
2013-03-03 05:38:00,15.4,12.5,30.19,WNW,287,1.1,3.3,88,0.00,,,0.00,0.00,VWS V14.01,2013-03-03 11:38:00,
2013-03-03 05:40:00,15.4,12.5,30.19,WNW,303,3.3,5.5,88,0.00,,,0.00,0.00,VWS V14.01,2013-03-03 11:40:00,
2013-03-03 05:42:00,15.4,12.5,30.19,WNW,285,2.2,4.4,88,0.00,,,0.00,0.00,VWS V14.01,2013-03-03 11:42:00,
2013-03-03 05:43:00,15.3,12.4,30.19,WNW,297,2.2,3.3,88,0.00,,,0.00,0.00,VWS V14.01,2013-03-03 11:43:00,
2013-03-03 05:45:00,15.3,12.4,30.19,WNW,294,3.3,4.4,88,0.00,,,0.00,0.00,VWS V14.01,2013-03-03 11:45:00,
2013-03-03 05:46:00,15.3,12.6,30.19,WNW,291,3.3,3.3,89,0.00,,,0.00,0.00,VWS V14.01,2013-03-03 11:46:00,
2013-03-03 05:48:00,15.3,12.6,30.19,WNW,289,4.4,5.5,89,0.00,,,0.00,0.00,VWS V14.01,2013-03-03 11:48:00,
2013-03-03 05:51:00,15.3,12.6,30.19,WNW,284,3.3,4.4,89,0.00,,,0.00,0.00,VWS V14.01,2013-03-03 11:51:00,
2013-03-03 05:53:00,15.3,12.6,30.19,WNW,292,3.3,4.4,89,0.00,,,0.00,0.00,VWS V14.01,2013-03-03 11:53:00,
2013-03-03 05:55:00,15.3,12.6,30.19,WNW,288,3.3,5.5,89,0.00,,,0.00,0.00,VWS V14.01,2013-03-03 11:55:00,
2013-03-03 05:57:00,15.3,12.6,30.20,WNW,286,3.3,4.4,89,0.00,,,0.00,0.00,VWS V14.01,2013-03-03 11:57:00,
2013-03-03 05:58:00,15.3,12.6,30.20,WNW,299,3.3,6.6,89,0.00,,,0.00,0.00,VWS V14.01,2013-03-03 11:58:00,
2013-03-03 06:01:00,15.3,12.6,30.20,WNW,292,3.3,3.3,89,0.00,,,0.00,0.00,VWS V14.01,2013-03-03 12:01:00,
2013-03-03 06:02:00,15.3,12.6,30.20,WNW,287,1.1,3.3,89,0.00,,,0.00,0.00,VWS V14.01,2013-03-03 12:02:00,
2013-03-03 06:04:00,15.3,12.6,30.20,WNW,291,3.3,4.4,89,0.00,,,0.00,0.00,VWS V14.01,2013-03-03 12:04:00,
2013-03-03 06:07:00,15.3,12.6,30.20,WNW,296,3.3,4.4,89,0.00,,,0.00,0.00,VWS V14.01,2013-03-03 12:07:00,
2013-03-03 06:09:00,15.2,12.6,30.20,WNW,291,4.4,4.4,89,0.00,,,0.00,0.00,VWS V14.01,2013-03-03 12:09:00,
2013-03-03 06:12:00,15.2,12.6,30.20,WNW,296,5.5,5.5,89,0.00,,,0.00,0.00,VWS V14.01,2013-03-03 12:12:00,
2013-03-03 06:13:00,15.3,12.6,30.20,WNW,299,3.3,5.5,89,0.00,,,0.00,0.00,VWS V14.01,2013-03-03 12:13:00,
2013-03-03 06:14:00,15.2,12.6,30.20,NW,312,3.3,4.4,89,0.00,,,0.00,0.00,VWS V14.01,2013-03-03 12:14:00,
2013-03-03 06:17:00,15.2,12.6,30.20,WNW,295,2.2,2.2,89,0.00,,,0.00,0.00,VWS V14.01,2013-03-03 12:17:00,
2013-03-03 06:18:00,15.2,12.6,30.20,WNW,296,3.3,4.4,89,0.00,,,0.00,0.00,VWS V14.01,2013-03-03 12:18:00,
2013-03-03 06:19:00,15.2,12.6,30.20,WNW,297,6.6,6.6,89,0.00,,,0.00,0.00,VWS V14.01,2013-03-03 12:19:00,
2013-03-03 06:20:00,15.2,12.6,30.20,WNW,290,5.5,6.6,89,0.00,,,0.00,0.00,VWS V14.01,2013-03-03 12:20:00,
2013-03-03 06:23:00,15.2,12.6,30.21,WNW,289,2.2,3.3,89,0.00,,,0.00,5.00,VWS V14.01,2013-03-03 12:23:00,
2013-03-03 06:24:00,15.2,12.6,30.21,WNW,287,2.2,4.4,89,0.00,,,0.00,5.00,VWS V14.01,2013-03-03 12:24:00,
2013-03-03 06:26:00,15.2,12.6,30.21,WNW,297,4.4,7.7,89,0.00,,,0.00,5.00,VWS V14.01,2013-03-03 12:26:00,
2013-03-03 06:28:00,15.2,12.6,30.21,WNW,285,3.3,4.4,89,0.00,,,0.00,7.00,VWS V14.01,2013-03-03 12:28:00,
2013-03-03 06:29:00,15.2,12.6,30.21,WNW,301,2.2,4.4,89,0.00,,,0.00,7.00,VWS V14.01,2013-03-03 12:29:00,
2013-03-03 06:31:00,15.2,12.6,30.21,WNW,296,2.2,4.4,89,0.00,,,0.00,7.00,VWS V14.01,2013-03-03 12:31:00,
2013-03-03 06:33:00,15.2,12.6,30.21,West,274,5.5,5.5,89,0.00,,,0.00,9.00,VWS V14.01,2013-03-03 12:33:00,
2013-03-03 06:34:00,15.2,12.6,30.21,West,274,3.3,5.5,89,0.00,,,0.00,9.00,VWS V14.01,2013-03-03 12:34:00,
2013-03-03 06:35:00,15.2,12.6,30.21,WNW,297,2.2,3.3,89,0.00,,,0.00,9.00,VWS V14.01,2013-03-03 12:35:00,
2013-03-03 06:37:00,15.1,12.4,30.21,NW,307,4.4,5.5,89,0.00,,,0.00,12.00,VWS V14.01,2013-03-03 12:37:00,
2013-03-03 06:39:00,15.1,12.4,30.21,WNW,282,4.4,4.4,89,0.00,,,0.00,12.00,VWS V14.01,2013-03-03 12:39:00,
2013-03-03 06:41:00,15.1,12.4,30.21,NW,305,4.4,6.6,89,0.00,,,0.00,14.00,VWS V14.01,2013-03-03 12:41:00,
2013-03-03 06:43:00,15.2,12.6,30.21,West,280,3.3,4.4,89,0.00,,,0.00,16.00,VWS V14.01,2013-03-03 12:43:00,
2013-03-03 06:44:00,15.2,12.6,30.21,WNW,301,4.4,5.5,89,0.00,,,0.00,16.00,VWS V14.01,2013-03-03 12:44:00,
2013-03-03 06:46:00,15.2,12.6,30.21,WNW,291,4.4,6.6,89,0.00,,,0.00,18.00,VWS V14.01,2013-03-03 12:46:00,
2013-03-03 06:48:00,15.2,12.6,30.21,WNW,293,3.3,6.6,89,0.00,,,0.00,19.00,VWS V14.01,2013-03-03 12:48:00,
2013-03-03 06:49:00,15.2,12.6,30.21,WNW,288,5.5,6.6,89,0.00,,,0.00,19.00,VWS V14.01,2013-03-03 12:49:00,
2013-03-03 06:51:00,15.3,12.6,30.21,WNW,297,3.3,3.3,89,0.00,,,0.00,21.00,VWS V14.01,2013-03-03 12:51:00,
2013-03-03 06:54:00,15.3,12.6,30.21,NW,316,4.4,4.4,89,0.00,,,0.00,26.00,VWS V14.01,2013-03-03 12:54:00,
2013-03-03 06:57:00,15.4,12.7,30.21,WNW,287,3.3,6.6,89,0.00,,,0.00,26.00,VWS V14.01,2013-03-03 12:57:00,
2013-03-03 07:04:00,15.5,12.8,30.20,WNW,292,4.4,5.5,89,0.00,,,0.00,30.00,VWS V14.01,2013-03-03 13:04:00,
2013-03-03 07:09:00,16.0,13.3,30.21,NW,310,4.4,6.6,89,0.00,,,0.00,39.00,VWS V14.01,2013-03-03 13:09:00,
2013-03-03 07:10:00,16.0,13.3,30.21,NW,304,3.3,5.5,89,0.00,,,0.00,42.00,VWS V14.01,2013-03-03 13:10:00,
2013-03-03 07:14:00,16.6,13.7,30.21,WNW,301,3.3,6.6,88,0.00,,,0.00,97.00,VWS V14.01,2013-03-03 13:14:00,
2013-03-03 07:15:00,16.7,13.8,30.21,NW,304,4.4,6.6,88,0.00,,,0.00,100.00,VWS V14.01,2013-03-03 13:15:00,
2013-03-03 07:20:00,17.2,14.0,30.21,WNW,301,5.5,5.5,87,0.00,,,0.00,116.00,VWS V14.01,2013-03-03 13:20:00,
2013-03-03 07:21:00,17.4,14.2,30.21,WNW,301,5.5,5.5,87,0.00,,,0.00,123.00,VWS V14.01,2013-03-03 13:21:00,
2013-03-03 07:22:00,17.5,14.3,30.21,NW,316,4.4,5.5,87,0.00,,,0.00,123.00,VWS V14.01,2013-03-03 13:22:00,
2013-03-03 07:25:00,17.9,14.4,30.21,NNW,338,3.3,5.5,86,0.00,,,0.00,128.00,VWS V14.01,2013-03-03 13:25:00,
2013-03-03 07:26:00,17.9,14.4,30.21,NW,316,3.3,6.6,86,0.00,,,0.00,128.00,VWS V14.01,2013-03-03 13:26:00,
2013-03-03 07:27:00,18.0,14.5,30.21,WNW,286,4.4,6.6,86,0.00,,,0.00,132.00,VWS V14.01,2013-03-03 13:27:00,
2013-03-03 07:30:00,18.4,14.6,30.21,WNW,301,3.3,5.5,85,0.00,,,0.00,158.00,VWS V14.01,2013-03-03 13:30:00,
2013-03-03 07:31:00,18.3,14.6,30.21,WNW,295,4.4,5.5,85,0.00,,,0.00,162.00,VWS V14.01,2013-03-03 13:31:00,
2013-03-03 07:32:00,18.3,14.6,30.21,WNW,298,4.4,5.5,85,0.00,,,0.00,162.00,VWS V14.01,2013-03-03 13:32:00,
2013-03-03 07:36:00,18.7,14.7,30.21,NW,326,3.3,4.4,84,0.00,,,0.00,179.00,VWS V14.01,2013-03-03 13:36:00,
2013-03-03 07:37:00,18.8,14.8,30.21,NW,306,4.4,6.6,84,0.00,,,0.00,183.00,VWS V14.01,2013-03-03 13:37:00,
2013-03-03 07:38:00,18.9,14.9,30.21,WNW,299,7.7,7.7,84,0.00,,,0.00,186.00,VWS V14.01,2013-03-03 13:38:00,
2013-03-03 07:39:00,19.0,14.7,30.21,WNW,300,4.4,7.7,83,0.00,,,0.00,192.00,VWS V14.01,2013-03-03 13:39:00,
2013-03-03 07:41:00,19.1,14.8,30.21,WNW,287,4.4,7.7,83,0.00,,,0.00,197.00,VWS V14.01,2013-03-03 13:41:00,
2013-03-03 07:42:00,19.1,14.8,30.21,NW,311,3.3,5.5,83,0.00,,,0.00,200.00,VWS V14.01,2013-03-03 13:42:00,
2013-03-03 07:43:00,19.1,14.8,30.21,NNW,327,5.5,5.5,83,0.00,,,0.00,202.00,VWS V14.01,2013-03-03 13:43:00,
2013-03-03 07:44:00,19.3,15.0,30.21,WNW,299,5.5,5.5,83,0.00,,,0.00,209.00,VWS V14.01,2013-03-03 13:44:00,
2013-03-03 07:46:00,19.5,15.2,30.21,WNW,285,6.6,6.6,83,0.00,,,0.00,213.00,VWS V14.01,2013-03-03 13:46:00,
2013-03-03 07:47:00,19.6,15.3,30.21,NNW,330,5.5,8.8,83,0.00,,,0.00,213.00,VWS V14.01,2013-03-03 13:47:00,
2013-03-03 07:48:00,19.6,15.0,30.21,NW,324,5.5,7.7,82,0.00,,,0.00,220.00,VWS V14.01,2013-03-03 13:48:00,
2013-03-03 07:51:00,19.8,15.2,30.21,NW,310,5.5,6.6,82,0.00,,,0.00,227.00,VWS V14.01,2013-03-03 13:51:00,
2013-03-03 07:52:00,20.0,15.4,30.21,NW,312,6.6,7.7,82,0.00,,,0.00,232.00,VWS V14.01,2013-03-03 13:52:00,
2013-03-03 07:53:00,20.0,15.4,30.21,WNW,303,7.7,8.8,82,0.00,,,0.00,236.00,VWS V14.01,2013-03-03 13:53:00,
2013-03-03 07:56:00,20.2,15.6,30.21,WNW,299,5.5,7.7,82,0.00,,,0.00,244.00,VWS V14.01,2013-03-03 13:56:00,
2013-03-03 07:58:00,20.4,15.5,30.21,NW,307,7.7,7.7,81,0.00,,,0.00,250.00,VWS V14.01,2013-03-03 13:58:00,
2013-03-03 07:59:00,20.5,15.6,30.21,WNW,298,6.6,6.6,81,0.00,,,0.00,255.00,VWS V14.01,2013-03-03 13:59:00,
2013-03-03 08:01:00,20.6,15.4,30.21,WNW,299,6.6,6.6,80,0.00,,,0.00,260.00,VWS V14.01,2013-03-03 14:01:00,
2013-03-03 08:03:00,20.6,15.4,30.21,NNW,343,3.3,7.7,80,0.00,,,0.00,265.00,VWS V14.01,2013-03-03 14:03:00,
2013-03-03 08:05:00,20.6,15.4,30.21,WNW,303,4.4,6.6,80,0.00,,,0.00,274.00,VWS V14.01,2013-03-03 14:05:00,
2013-03-03 08:06:00,20.8,15.6,30.21,NW,314,2.2,4.4,80,0.00,,,0.00,278.00,VWS V14.01,2013-03-03 14:06:00,
2013-03-03 08:08:00,20.9,15.7,30.21,NNW,344,4.4,5.5,80,0.00,,,0.00,285.00,VWS V14.01,2013-03-03 14:08:00,
2013-03-03 08:10:00,21.1,15.9,30.21,NW,310,3.3,4.4,80,0.00,,,0.00,292.00,VWS V14.01,2013-03-03 14:10:00,
2013-03-03 08:13:00,21.3,15.8,30.21,NNW,339,3.3,5.5,79,0.00,,,0.00,299.00,VWS V14.01,2013-03-03 14:13:00,
2013-03-03 08:14:00,21.3,15.8,30.21,WNW,295,4.4,4.4,79,0.00,,,0.00,299.00,VWS V14.01,2013-03-03 14:14:00,
2013-03-03 08:15:00,21.5,16.3,30.21,WNW,297,2.2,6.6,80,0.00,,,0.00,308.00,VWS V14.01,2013-03-03 14:15:00,
2013-03-03 08:18:00,22.0,16.8,30.21,NW,315,7.7,7.7,80,0.00,,,0.00,318.00,VWS V14.01,2013-03-03 14:18:00,
2013-03-03 08:19:00,22.1,16.6,30.21,WNW,303,8.8,9.9,79,0.00,,,0.00,318.00,VWS V14.01,2013-03-03 14:19:00,
2013-03-03 08:20:00,22.1,16.6,30.21,NW,308,4.4,8.8,79,0.00,,,0.00,320.00,VWS V14.01,2013-03-03 14:20:00,
2013-03-03 08:24:00,22.6,16.8,30.21,NW,305,4.4,8.8,78,0.00,,,0.00,334.00,VWS V14.01,2013-03-03 14:24:00,
2013-03-03 08:25:00,22.6,16.8,30.21,NNW,328,3.3,6.6,78,0.00,,,0.00,339.00,VWS V14.01,2013-03-03 14:25:00,
2013-03-03 08:26:00,22.6,16.8,30.21,NNW,338,3.3,4.4,78,0.00,,,0.00,339.00,VWS V14.01,2013-03-03 14:26:00,
2013-03-03 08:29:00,22.7,16.6,30.21,NW,323,5.5,6.6,77,0.00,,,0.00,352.00,VWS V14.01,2013-03-03 14:29:00,
2013-03-03 08:30:00,22.8,16.7,30.21,WNW,298,6.6,6.6,77,0.00,,,0.00,357.00,VWS V14.01,2013-03-03 14:30:00,
2013-03-03 08:31:00,22.9,16.8,30.21,NW,316,6.6,6.6,77,0.00,,,0.00,357.00,VWS V14.01,2013-03-03 14:31:00,
2013-03-03 08:35:00,23.2,17.1,30.21,NNW,347,4.4,4.4,77,0.00,,,0.00,373.00,VWS V14.01,2013-03-03 14:35:00,
2013-03-03 08:36:00,23.3,17.2,30.20,NW,317,4.4,5.5,77,0.00,,,0.00,376.00,VWS V14.01,2013-03-03 14:36:00,
2013-03-03 08:40:00,23.5,17.1,30.20,NW,310,2.2,4.4,76,0.00,,,0.00,394.00,VWS V14.01,2013-03-03 14:40:00,
2013-03-03 08:41:00,23.5,16.8,30.20,NW,326,6.6,6.6,75,0.00,,,0.00,396.00,VWS V14.01,2013-03-03 14:41:00,
2013-03-03 08:46:00,23.9,17.1,30.21,NW,325,3.3,5.5,75,0.00,,,0.00,415.00,VWS V14.01,2013-03-03 14:46:00,
2013-03-03 08:47:00,24.0,17.2,30.21,NW,315,4.4,4.4,75,0.00,,,0.00,418.00,VWS V14.01,2013-03-03 14:47:00,
2013-03-03 08:51:00,24.6,17.5,30.21,NW,315,3.3,4.4,74,0.00,,,0.00,439.00,VWS V14.01,2013-03-03 14:51:00,
2013-03-03 08:52:00,24.5,17.4,30.21,NW,315,4.4,5.5,74,0.00,,,0.00,443.00,VWS V14.01,2013-03-03 14:52:00,
2013-03-03 08:53:00,24.6,17.2,30.21,NW,306,4.4,7.7,73,0.00,,,0.00,445.00,VWS V14.01,2013-03-03 14:53:00,
2013-03-03 08:57:00,24.6,17.2,30.21,North,354,2.2,5.5,73,0.00,,,0.00,455.00,VWS V14.01,2013-03-03 14:57:00,
2013-03-03 08:58:00,24.7,17.3,30.21,NW,323,5.5,7.7,73,0.00,,,0.00,461.00,VWS V14.01,2013-03-03 14:58:00,
2013-03-03 09:02:00,25.3,17.9,30.21,WNW,297,2.2,4.4,73,0.00,,,0.00,473.00,VWS V14.01,2013-03-03 15:02:00,
2013-03-03 09:03:00,25.3,17.9,30.21,WNW,296,5.5,5.5,73,0.00,,,0.00,475.00,VWS V14.01,2013-03-03 15:03:00,
2013-03-03 09:04:00,25.3,17.9,30.20,WNW,295,4.4,6.6,73,0.00,,,0.00,475.00,VWS V14.01,2013-03-03 15:04:00,
2013-03-03 09:05:00,25.4,18.0,30.21,WNW,301,5.5,5.5,73,0.00,,,0.00,478.00,VWS V14.01,2013-03-03 15:05:00,
2013-03-03 09:08:00,25.7,18.3,30.20,NW,322,5.5,5.5,73,0.00,,,0.00,485.00,VWS V14.01,2013-03-03 15:08:00,
2013-03-03 09:09:00,25.8,18.4,30.20,North,354,3.3,6.6,73,0.00,,,0.00,489.00,VWS V14.01,2013-03-03 15:09:00,
2013-03-03 09:10:00,26.0,18.5,30.20,North,349,6.6,6.6,73,0.00,,,0.00,487.00,VWS V14.01,2013-03-03 15:10:00,
2013-03-03 09:14:00,26.6,18.8,30.20,NW,321,2.2,5.5,72,0.00,,,0.00,318.00,VWS V14.01,2013-03-03 15:14:00,
2013-03-03 09:15:00,26.6,18.5,30.20,North,359,4.4,5.5,71,0.00,,,0.00,503.00,VWS V14.01,2013-03-03 15:15:00,
2013-03-03 09:20:00,26.4,18.0,30.20,NW,325,4.4,4.4,70,0.00,,,0.00,517.00,VWS V14.01,2013-03-03 15:20:00,
2013-03-03 09:21:00,26.4,18.0,30.20,NW,314,5.5,5.5,70,0.00,,,0.00,519.00,VWS V14.01,2013-03-03 15:21:00,
2013-03-03 09:25:00,26.8,18.3,30.20,NNW,329,3.3,5.5,70,0.00,,,0.00,529.00,VWS V14.01,2013-03-03 15:25:00,
2013-03-03 09:26:00,26.9,18.4,30.20,NNE,14,4.4,6.6,70,0.00,,,0.00,533.00,VWS V14.01,2013-03-03 15:26:00,
2013-03-03 09:30:00,27.2,18.4,30.20,NW,305,3.3,3.3,69,0.00,,,0.00,454.00,VWS V14.01,2013-03-03 15:30:00,
2013-03-03 09:31:00,27.4,18.9,30.20,NW,310,4.4,5.5,70,0.00,,,0.00,454.00,VWS V14.01,2013-03-03 15:31:00,
2013-03-03 09:32:00,27.4,18.6,30.20,North,359,5.5,5.5,69,0.00,,,0.00,454.00,VWS V14.01,2013-03-03 15:32:00,
2013-03-03 09:36:00,27.2,17.7,30.20,NNW,346,4.4,6.6,67,0.00,,,0.00,183.00,VWS V14.01,2013-03-03 15:36:00,
2013-03-03 09:37:00,27.1,18.0,30.20,NW,316,3.3,5.5,68,0.00,,,0.00,183.00,VWS V14.01,2013-03-03 15:37:00,
2013-03-03 09:41:00,27.3,18.1,30.20,North,10,6.6,7.7,68,0.00,,,0.00,83.00,VWS V14.01,2013-03-03 15:41:00,
2013-03-03 09:42:00,27.4,18.2,30.20,NW,319,5.5,6.6,68,0.00,,,0.00,83.00,VWS V14.01,2013-03-03 15:42:00,
2013-03-03 09:45:00,27.2,18.0,30.20,North,4,3.3,4.4,68,0.00,,,0.00,526.00,VWS V14.01,2013-03-03 15:45:00,
2013-03-03 09:47:00,27.4,18.6,30.20,NNW,327,3.3,6.6,69,0.00,,,0.00,288.00,VWS V14.01,2013-03-03 15:47:00,
2013-03-03 09:48:00,27.6,18.8,30.20,NNW,335,5.5,6.6,69,0.00,,,0.00,234.00,VWS V14.01,2013-03-03 15:48:00,
2013-03-03 09:50:00,27.8,18.3,30.20,North,354,4.4,6.6,67,0.00,,,0.00,274.00,VWS V14.01,2013-03-03 15:50:00,
2013-03-03 09:52:00,28.0,18.5,30.20,NNE,23,3.3,3.3,67,0.00,,,0.00,114.00,VWS V14.01,2013-03-03 15:52:00,
2013-03-03 09:53:00,28.0,18.8,30.20,NNE,23,5.5,5.5,68,0.00,,,0.00,114.00,VWS V14.01,2013-03-03 15:53:00,
2013-03-03 09:57:00,27.9,18.4,30.20,NNE,20,3.3,4.4,67,0.00,,,0.00,56.00,VWS V14.01,2013-03-03 15:57:00,
2013-03-03 09:58:00,28.0,18.5,30.20,North,8,3.3,6.6,67,0.00,,,0.00,56.00,VWS V14.01,2013-03-03 15:58:00,
2013-03-03 10:03:00,28.3,18.4,30.20,NW,314,4.4,5.5,66,0.00,,,0.00,67.00,VWS V14.01,2013-03-03 16:03:00,
2013-03-03 10:04:00,28.5,19.0,30.20,North,354,3.3,6.6,67,0.00,,,0.00,67.00,VWS V14.01,2013-03-03 16:04:00,
2013-03-03 10:08:00,28.8,18.9,30.20,NW,317,4.4,5.5,66,0.00,,,0.00,323.00,VWS V14.01,2013-03-03 16:08:00,
2013-03-03 10:09:00,28.9,19.3,30.20,NNW,343,4.4,5.5,67,0.00,,,0.00,323.00,VWS V14.01,2013-03-03 16:09:00,
2013-03-03 10:10:00,29.0,19.1,30.20,NNW,341,4.4,5.5,66,0.00,,,0.00,323.00,VWS V14.01,2013-03-03 16:10:00,
2013-03-03 10:13:00,28.9,18.6,30.20,NW,309,6.6,7.7,65,0.00,,,0.00,125.00,VWS V14.01,2013-03-03 16:13:00,
2013-03-03 10:15:00,29.2,19.6,30.19,NNW,343,5.5,5.5,67,0.00,,,0.00,178.00,VWS V14.01,2013-03-03 16:15:00,
2013-03-03 10:18:00,29.2,18.9,30.20,WNW,291,6.6,7.7,65,0.00,,,0.00,97.00,VWS V14.01,2013-03-03 16:18:00,
2013-03-03 10:20:00,29.0,18.4,30.19,WNW,282,6.6,6.6,64,0.00,,,0.00,77.00,VWS V14.01,2013-03-03 16:20:00,
2013-03-03 10:24:00,29.2,19.3,30.19,NW,306,3.3,5.5,66,0.00,,,0.00,56.00,VWS V14.01,2013-03-03 16:24:00,
2013-03-03 10:25:00,29.3,19.0,30.19,West,280,5.5,5.5,65,0.00,,,0.00,56.00,VWS V14.01,2013-03-03 16:25:00,
2013-03-03 10:26:00,29.3,19.0,30.19,WNW,293,4.4,7.7,65,0.00,,,0.00,56.00,VWS V14.01,2013-03-03 16:26:00,
2013-03-03 10:29:00,29.4,18.7,30.19,WNW,285,4.4,6.6,64,0.00,,,0.00,70.00,VWS V14.01,2013-03-03 16:29:00,
2013-03-03 10:31:00,29.4,19.1,30.19,WNW,287,5.5,7.7,65,0.00,,,0.00,60.00,VWS V14.01,2013-03-03 16:31:00,
2013-03-03 10:32:00,29.6,19.3,30.19,NW,305,8.8,12.1,65,0.00,,,0.00,56.00,VWS V14.01,2013-03-03 16:32:00,
2013-03-03 10:34:00,29.7,19.4,30.19,WNW,296,7.7,7.7,65,0.00,,,0.00,148.00,VWS V14.01,2013-03-03 16:34:00,
2013-03-03 10:36:00,29.8,19.5,30.20,NW,322,4.4,5.5,65,0.00,,,0.00,160.00,VWS V14.01,2013-03-03 16:36:00,
2013-03-03 10:37:00,29.8,19.5,30.20,NW,326,7.7,7.7,65,0.00,,,0.00,116.00,VWS V14.01,2013-03-03 16:37:00,
2013-03-03 10:40:00,29.5,18.8,30.19,NNW,329,6.6,7.7,64,0.00,,,0.00,167.00,VWS V14.01,2013-03-03 16:40:00,
2013-03-03 10:41:00,29.7,19.8,30.19,NW,305,4.4,4.4,66,0.00,,,0.00,100.00,VWS V14.01,2013-03-03 16:41:00,
2013-03-03 10:42:00,29.7,19.8,30.19,NW,315,4.4,4.4,66,0.00,,,0.00,100.00,VWS V14.01,2013-03-03 16:42:00,
2013-03-03 10:46:00,30.0,19.7,30.19,WNW,299,3.3,7.7,65,0.00,,,0.00,98.00,VWS V14.01,2013-03-03 16:46:00,
2013-03-03 10:47:00,30.2,20.2,30.19,NW,317,6.6,7.7,66,0.00,,,0.00,148.00,VWS V14.01,2013-03-03 16:47:00,
2013-03-03 10:48:00,30.3,20.3,30.19,NNW,331,6.6,6.6,66,0.00,,,0.00,165.00,VWS V14.01,2013-03-03 16:48:00,
2013-03-03 10:51:00,30.5,19.8,30.19,NW,307,8.8,8.8,64,0.00,,,0.00,58.00,VWS V14.01,2013-03-03 16:51:00,
2013-03-03 10:52:00,30.5,19.8,30.19,NW,308,6.6,8.8,64,0.00,,,0.00,58.00,VWS V14.01,2013-03-03 16:52:00,
2013-03-03 10:53:00,30.6,20.2,30.19,NW,309,4.4,4.4,65,0.00,,,0.00,65.00,VWS V14.01,2013-03-03 16:53:00,
2013-03-03 10:57:00,30.9,20.9,30.19,WNW,289,7.7,8.8,66,0.00,,,0.00,171.00,VWS V14.01,2013-03-03 16:57:00,
2013-03-03 10:59:00,31.0,20.3,30.19,West,268,6.6,7.7,64,0.00,,,0.00,308.00,VWS V14.01,2013-03-03 16:59:00,
2013-03-03 11:02:00,31.4,21.0,30.19,NW,304,8.8,8.8,65,0.00,,,0.00,693.00,VWS V14.01,2013-03-03 17:02:00,
2013-03-03 11:03:00,31.6,20.8,30.19,WNW,293,5.5,5.5,64,0.00,,,0.00,712.00,VWS V14.01,2013-03-03 17:03:00,
2013-03-03 11:06:00,31.6,20.5,30.19,NNW,343,8.8,9.9,63,0.00,,,0.00,717.00,VWS V14.01,2013-03-03 17:06:00,
2013-03-03 11:07:00,31.5,19.6,30.19,NW,321,8.8,9.9,61,0.00,,,0.00,719.00,VWS V14.01,2013-03-03 17:07:00,
2013-03-03 11:09:00,31.1,19.2,30.18,NNW,328,9.9,9.9,61,0.00,,,0.00,722.00,VWS V14.01,2013-03-03 17:09:00,
2013-03-03 11:11:00,31.3,20.2,30.19,NNW,339,6.6,7.7,63,0.00,,,0.00,724.00,VWS V14.01,2013-03-03 17:11:00,
2013-03-03 11:14:00,31.5,20.7,30.18,North,350,2.2,4.4,64,0.00,,,0.00,728.00,VWS V14.01,2013-03-03 17:14:00,
2013-03-03 11:17:00,31.6,20.1,30.18,NW,320,11.0,12.1,62,0.00,,,0.00,728.00,VWS V14.01,2013-03-03 17:17:00,
2013-03-03 11:19:00,31.6,20.5,30.18,NW,322,3.3,6.6,63,0.00,,,0.00,728.00,VWS V14.01,2013-03-03 17:19:00,
2013-03-03 11:20:00,31.6,20.1,30.18,NW,306,1.1,3.3,62,0.00,,,0.00,728.00,VWS V14.01,2013-03-03 17:20:00,
2013-03-03 11:23:00,31.5,20.0,30.18,WNW,285,6.6,7.7,62,0.00,,,0.00,733.00,VWS V14.01,2013-03-03 17:23:00,
2013-03-03 11:24:00,31.3,19.4,30.18,NW,312,5.5,8.8,61,0.00,,,0.00,735.00,VWS V14.01,2013-03-03 17:24:00,
2013-03-03 11:25:00,31.1,18.9,30.18,WNW,303,3.3,6.6,60,0.00,,,0.00,733.00,VWS V14.01,2013-03-03 17:25:00,
2013-03-03 11:29:00,30.7,19.6,30.18,NW,313,4.4,9.9,63,0.00,,,0.00,652.00,VWS V14.01,2013-03-03 17:29:00,
2013-03-03 11:30:00,31.3,20.5,30.18,WNW,301,4.4,5.5,64,0.00,,,0.00,647.00,VWS V14.01,2013-03-03 17:30:00,
2013-03-03 11:31:00,31.7,20.2,30.18,NNW,329,5.5,5.5,62,0.00,,,0.00,659.00,VWS V14.01,2013-03-03 17:31:00,
2013-03-03 11:34:00,32.0,19.3,30.18,WNW,287,9.9,12.1,59,0.00,,,0.00,657.00,VWS V14.01,2013-03-03 17:34:00,
2013-03-03 11:36:00,31.9,20.0,30.18,WNW,301,2.2,6.6,61,0.00,,,0.00,677.00,VWS V14.01,2013-03-03 17:36:00,
2013-03-03 11:40:00,31.7,20.2,30.18,WNW,285,6.6,9.9,62,0.00,,,0.00,747.00,VWS V14.01,2013-03-03 17:40:00,
2013-03-03 11:41:00,31.7,19.4,30.18,West,277,7.7,8.8,60,0.00,,,0.00,747.00,VWS V14.01,2013-03-03 17:41:00,
2013-03-03 11:45:00,31.4,18.7,30.18,NW,308,5.5,5.5,59,0.00,,,0.00,747.00,VWS V14.01,2013-03-03 17:45:00,
2013-03-03 11:46:00,31.6,19.7,30.18,NNW,345,7.7,7.7,61,0.00,,,0.00,745.00,VWS V14.01,2013-03-03 17:46:00,
2013-03-03 11:47:00,31.7,19.8,30.18,NW,312,6.6,7.7,61,0.00,,,0.00,745.00,VWS V14.01,2013-03-03 17:47:00,
2013-03-03 11:51:00,32.4,19.7,30.18,WNW,293,3.3,4.4,59,0.00,,,0.00,747.00,VWS V14.01,2013-03-03 17:51:00,
2013-03-03 11:52:00,32.2,19.5,30.18,WNW,295,6.6,6.6,59,0.00,,,0.00,749.00,VWS V14.01,2013-03-03 17:52:00,
2013-03-03 11:56:00,32.2,18.7,30.18,NW,321,4.4,4.4,57,0.00,,,0.00,752.00,VWS V14.01,2013-03-03 17:56:00,
2013-03-03 11:57:00,32.0,18.9,30.18,West,272,5.5,6.6,58,0.00,,,0.00,756.00,VWS V14.01,2013-03-03 17:57:00,
2013-03-03 11:58:00,31.7,18.6,30.18,NW,314,6.6,6.6,58,0.00,,,0.00,756.00,VWS V14.01,2013-03-03 17:58:00,
2013-03-03 12:01:00,32.1,19.4,30.18,North,349,5.5,5.5,59,0.00,,,0.00,745.00,VWS V14.01,2013-03-03 18:01:00,
2013-03-03 12:02:00,32.2,20.3,30.18,NNW,343,2.2,2.2,61,0.00,,,0.00,675.00,VWS V14.01,2013-03-03 18:02:00,
2013-03-03 12:03:00,32.3,20.0,30.18,WNW,302,4.4,4.4,60,0.00,,,0.00,675.00,VWS V14.01,2013-03-03 18:03:00,
2013-03-03 12:04:00,32.5,20.6,30.17,NNW,330,4.4,6.6,61,0.00,,,0.00,722.00,VWS V14.01,2013-03-03 18:04:00,
2013-03-03 12:06:00,33.1,21.5,30.17,NW,307,4.4,7.7,62,0.00,,,0.00,671.00,VWS V14.01,2013-03-03 18:06:00,
2013-03-03 12:08:00,33.3,19.7,30.17,NNW,347,7.7,8.8,57,0.00,,,0.00,664.00,VWS V14.01,2013-03-03 18:08:00,
2013-03-03 12:09:00,33.2,19.2,30.17,NNW,340,4.4,5.5,56,0.00,,,0.00,661.00,VWS V14.01,2013-03-03 18:09:00,
2013-03-03 12:10:00,32.9,19.8,30.17,NNE,19,4.4,4.4,58,0.00,,,0.00,619.00,VWS V14.01,2013-03-03 18:10:00,
2013-03-03 12:13:00,32.7,18.8,30.17,North,354,2.2,4.4,56,0.00,,,0.00,573.00,VWS V14.01,2013-03-03 18:13:00,
2013-03-03 12:14:00,32.6,19.9,30.17,NW,322,3.3,6.6,59,0.00,,,0.00,708.00,VWS V14.01,2013-03-03 18:14:00,
2013-03-03 12:16:00,32.7,20.0,30.17,NW,318,3.3,5.5,59,0.00,,,0.00,687.00,VWS V14.01,2013-03-03 18:16:00,
2013-03-03 12:18:00,32.7,19.2,30.17,North,354,5.5,5.5,57,0.00,,,0.00,598.00,VWS V14.01,2013-03-03 18:18:00,
2013-03-03 12:19:00,32.5,18.6,30.17,NW,320,4.4,6.6,56,0.00,,,0.00,654.00,VWS V14.01,2013-03-03 18:19:00,
2013-03-03 12:21:00,32.4,19.7,30.17,NNW,333,1.1,2.2,59,0.00,,,0.00,682.00,VWS V14.01,2013-03-03 18:21:00,
2013-03-03 12:23:00,31.9,18.8,30.17,North,349,2.2,4.4,58,0.00,,,0.00,666.00,VWS V14.01,2013-03-03 18:23:00,
2013-03-03 12:25:00,31.5,17.2,30.16,North,349,0.0,0.0,55,0.00,,,0.00,745.00,VWS V14.01,2013-03-03 18:25:00,
2013-03-03 12:28:00,31.9,18.4,30.16,North,354,2.2,2.2,57,0.00,,,0.00,745.00,VWS V14.01,2013-03-03 18:28:00,
2013-03-03 12:31:00,32.5,20.2,30.16,NNW,335,6.6,8.8,60,0.00,,,0.00,745.00,VWS V14.01,2013-03-03 18:31:00,
2013-03-03 12:34:00,33.2,20.4,30.16,NW,312,4.4,5.5,59,0.00,,,0.00,745.00,VWS V14.01,2013-03-03 18:34:00,
2013-03-03 12:35:00,33.7,20.9,30.16,NNW,327,5.5,6.6,59,0.00,,,0.00,693.00,VWS V14.01,2013-03-03 18:35:00,
2013-03-03 12:36:00,33.6,19.2,30.16,WNW,303,6.6,8.8,55,0.00,,,0.00,693.00,VWS V14.01,2013-03-03 18:36:00,
2013-03-03 12:39:00,33.0,18.2,30.16,NW,316,0.0,0.0,54,0.00,,,0.00,524.00,VWS V14.01,2013-03-03 18:39:00,
2013-03-03 12:40:00,32.8,18.8,30.16,WNW,293,4.4,5.5,56,0.00,,,0.00,529.00,VWS V14.01,2013-03-03 18:40:00,
2013-03-03 12:41:00,32.7,17.9,30.16,NW,324,3.3,6.6,54,0.00,,,0.00,529.00,VWS V14.01,2013-03-03 18:41:00,
2013-03-03 12:44:00,32.4,18.5,30.16,WSW,254,5.5,6.6,56,0.00,,,0.00,476.00,VWS V14.01,2013-03-03 18:44:00,
2013-03-03 12:45:00,32.5,19.4,30.16,WSW,243,6.6,6.6,58,0.00,,,0.00,476.00,VWS V14.01,2013-03-03 18:45:00,
2013-03-03 12:47:00,32.9,18.5,30.16,WNW,302,3.3,4.4,55,0.00,,,0.00,585.00,VWS V14.01,2013-03-03 18:47:00,
2013-03-03 12:49:00,32.5,17.3,30.16,NW,305,3.3,3.3,53,0.00,,,0.00,615.00,VWS V14.01,2013-03-03 18:49:00,
2013-03-03 12:50:00,32.3,17.5,30.16,NW,305,2.2,3.3,54,0.00,,,0.00,621.00,VWS V14.01,2013-03-03 18:50:00,
2013-03-03 12:51:00,32.1,17.3,30.16,NW,307,2.2,2.2,54,0.00,,,0.00,640.00,VWS V14.01,2013-03-03 18:51:00,
2013-03-03 12:52:00,32.3,19.6,30.15,North,359,4.4,4.4,59,0.00,,,0.00,654.00,VWS V14.01,2013-03-03 18:52:00,
2013-03-03 12:55:00,32.9,17.7,30.15,NW,322,4.4,5.5,53,0.00,,,0.00,598.00,VWS V14.01,2013-03-03 18:55:00,
2013-03-03 12:56:00,32.8,18.0,30.15,NNW,327,3.3,5.5,54,0.00,,,0.00,548.00,VWS V14.01,2013-03-03 18:56:00,
2013-03-03 12:57:00,32.9,18.1,30.15,NNW,331,5.5,14.3,54,0.00,,,0.00,622.00,VWS V14.01,2013-03-03 18:57:00,
2013-03-03 13:01:00,33.8,20.2,30.15,NNW,340,5.5,5.5,57,0.00,,,0.00,589.00,VWS V14.01,2013-03-03 19:01:00,
2013-03-03 13:02:00,33.8,18.9,30.15,NNW,335,3.3,5.5,54,0.00,,,0.00,461.00,VWS V14.01,2013-03-03 19:02:00,
2013-03-03 13:03:00,33.7,19.3,30.15,North,359,1.1,5.5,55,0.00,,,0.00,501.00,VWS V14.01,2013-03-03 19:03:00,
2013-03-03 13:06:00,33.1,17.8,30.15,NNW,340,3.3,4.4,53,0.00,,,0.00,584.00,VWS V14.01,2013-03-03 19:06:00,
2013-03-03 13:07:00,33.2,17.9,30.15,NW,314,3.3,3.3,53,0.00,,,0.00,552.00,VWS V14.01,2013-03-03 19:07:00,
2013-03-03 13:09:00,33.5,19.5,30.15,WNW,298,3.3,6.6,56,0.00,,,0.00,541.00,VWS V14.01,2013-03-03 19:09:00,
2013-03-03 13:12:00,33.5,19.1,30.15,West,262,5.5,7.7,55,0.00,,,0.00,450.00,VWS V14.01,2013-03-03 19:12:00,
2013-03-03 13:13:00,33.6,20.0,30.15,NNE,18,3.3,6.6,57,0.00,,,0.00,533.00,VWS V14.01,2013-03-03 19:13:00,
2013-03-03 13:14:00,33.5,18.6,30.15,ENE,59,2.2,3.3,54,0.00,,,0.00,598.00,VWS V14.01,2013-03-03 19:14:00,
2013-03-03 13:17:00,33.6,17.9,30.15,NNW,347,1.1,2.2,52,0.00,,,0.00,492.00,VWS V14.01,2013-03-03 19:17:00,
2013-03-03 13:19:00,33.4,17.7,30.15,North,359,5.5,5.5,52,0.00,,,0.00,527.00,VWS V14.01,2013-03-03 19:19:00,
2013-03-03 13:22:00,33.5,19.5,30.15,WNW,299,8.8,8.8,56,0.00,,,0.00,564.00,VWS V14.01,2013-03-03 19:22:00,
2013-03-03 13:23:00,33.5,19.5,30.15,WNW,288,5.5,8.8,56,0.00,,,0.00,603.00,VWS V14.01,2013-03-03 19:23:00,
2013-03-03 13:24:00,33.3,18.0,30.15,NW,305,3.3,5.5,53,0.00,,,0.00,564.00,VWS V14.01,2013-03-03 19:24:00,
2013-03-03 13:25:00,33.2,18.4,30.15,NW,304,3.3,5.5,54,0.00,,,0.00,557.00,VWS V14.01,2013-03-03 19:25:00,
2013-03-03 13:27:00,33.1,17.8,30.14,SW,231,5.5,5.5,53,0.00,,,0.00,578.00,VWS V14.01,2013-03-03 19:27:00,
2013-03-03 13:28:00,33.2,18.4,30.14,WSW,256,2.2,5.5,54,0.00,,,0.00,554.00,VWS V14.01,2013-03-03 19:28:00,
2013-03-03 13:29:00,33.2,18.4,30.15,NW,310,7.7,9.9,54,0.00,,,0.00,657.00,VWS V14.01,2013-03-03 19:29:00,
2013-03-03 13:30:00,33.2,17.9,30.15,NW,312,8.8,8.8,53,0.00,,,0.00,587.00,VWS V14.01,2013-03-03 19:30:00,
2013-03-03 13:32:00,33.0,18.6,30.15,West,275,5.5,8.8,55,0.00,,,0.00,570.00,VWS V14.01,2013-03-03 19:32:00,
2013-03-03 13:33:00,33.0,18.2,30.14,WNW,289,7.7,7.7,54,0.00,,,0.00,592.00,VWS V14.01,2013-03-03 19:33:00,
2013-03-03 13:35:00,33.2,18.4,30.14,WSW,256,7.7,7.7,54,0.00,,,0.00,686.00,VWS V14.01,2013-03-03 19:35:00,
2013-03-03 13:36:00,33.2,18.4,30.14,WSW,242,8.8,8.8,54,0.00,,,0.00,684.00,VWS V14.01,2013-03-03 19:36:00,
2013-03-03 13:38:00,33.3,18.0,30.14,WNW,284,9.9,12.1,53,0.00,,,0.00,680.00,VWS V14.01,2013-03-03 19:38:00,
2013-03-03 13:40:00,33.3,18.0,30.14,NW,304,7.7,9.9,53,0.00,,,0.00,677.00,VWS V14.01,2013-03-03 19:40:00,
2013-03-03 13:41:00,33.2,17.5,30.14,WNW,300,2.2,9.9,52,0.00,,,0.00,677.00,VWS V14.01,2013-03-03 19:41:00,
2013-03-03 13:43:00,32.8,17.1,30.14,WNW,294,8.8,11.0,52,0.00,,,0.00,673.00,VWS V14.01,2013-03-03 19:43:00,
2013-03-03 13:44:00,32.8,17.6,30.14,WNW,291,9.9,11.0,53,0.00,,,0.00,673.00,VWS V14.01,2013-03-03 19:44:00,
2013-03-03 13:46:00,32.8,17.6,30.14,WNW,303,4.4,5.5,53,0.00,,,0.00,635.00,VWS V14.01,2013-03-03 19:46:00,
2013-03-03 13:48:00,33.3,18.9,30.14,NW,318,6.6,7.7,55,0.00,,,0.00,603.00,VWS V14.01,2013-03-03 19:48:00,
2013-03-03 13:49:00,33.3,18.5,30.14,NW,312,3.3,7.7,54,0.00,,,0.00,564.00,VWS V14.01,2013-03-03 19:49:00,
2013-03-03 13:51:00,33.2,17.5,30.14,WNW,282,5.5,8.8,52,0.00,,,0.00,545.00,VWS V14.01,2013-03-03 19:51:00,
2013-03-03 13:54:00,33.5,18.2,30.14,NW,313,8.8,11.0,53,0.00,,,0.00,531.00,VWS V14.01,2013-03-03 19:54:00,
2013-03-03 13:56:00,33.6,17.9,30.14,West,279,6.6,8.8,52,0.00,,,0.00,598.00,VWS V14.01,2013-03-03 19:56:00,
2013-03-03 13:57:00,33.5,17.8,30.14,WNW,297,6.6,8.8,52,0.00,,,0.00,561.00,VWS V14.01,2013-03-03 19:57:00,
2013-03-03 13:59:00,33.7,18.4,30.14,NW,312,3.3,3.3,53,0.00,,,0.00,643.00,VWS V14.01,2013-03-03 19:59:00,
2013-03-03 14:01:00,33.5,17.8,30.14,NW,314,5.5,6.6,52,0.00,,,0.00,642.00,VWS V14.01,2013-03-03 20:01:00,
2013-03-03 14:04:00,33.0,16.9,30.14,NNW,339,1.1,1.1,51,0.00,,,0.00,635.00,VWS V14.01,2013-03-03 20:04:00,
2013-03-03 14:05:00,33.1,17.4,30.14,NNW,327,2.2,2.2,52,0.00,,,0.00,631.00,VWS V14.01,2013-03-03 20:05:00,
2013-03-03 14:06:00,33.4,18.1,30.14,NNW,328,3.3,5.5,53,0.00,,,0.00,629.00,VWS V14.01,2013-03-03 20:06:00,
2013-03-03 14:10:00,33.7,18.8,30.14,West,273,2.2,4.4,54,0.00,,,0.00,621.00,VWS V14.01,2013-03-03 20:10:00,
2013-03-03 14:11:00,33.8,18.9,30.14,West,273,2.2,2.2,54,0.00,,,0.00,621.00,VWS V14.01,2013-03-03 20:11:00,
2013-03-03 14:15:00,33.9,18.1,30.14,NNW,339,5.5,7.7,52,0.00,,,0.00,592.00,VWS V14.01,2013-03-03 20:15:00,
2013-03-03 14:17:00,33.8,17.6,30.14,NW,305,3.3,4.4,51,0.00,,,0.00,557.00,VWS V14.01,2013-03-03 20:17:00,
2013-03-03 14:18:00,33.5,17.3,30.14,NNW,335,8.8,9.9,51,0.00,,,0.00,482.00,VWS V14.01,2013-03-03 20:18:00,
2013-03-03 14:20:00,33.5,19.5,30.14,West,267,6.6,9.9,56,0.00,,,0.00,357.00,VWS V14.01,2013-03-03 20:20:00,
2013-03-03 14:22:00,33.4,17.7,30.14,NW,305,8.8,9.9,52,0.00,,,0.00,350.00,VWS V14.01,2013-03-03 20:22:00,
2013-03-03 14:23:00,33.3,17.6,30.14,NW,304,5.5,9.9,52,0.00,,,0.00,394.00,VWS V14.01,2013-03-03 20:23:00,
2013-03-03 14:25:00,33.6,20.0,30.14,NE,38,2.2,2.2,57,0.00,,,0.00,401.00,VWS V14.01,2013-03-03 20:25:00,
2013-03-03 14:28:00,33.6,17.9,30.14,NW,325,7.7,7.7,52,0.00,,,0.00,304.00,VWS V14.01,2013-03-03 20:28:00,
2013-03-03 14:29:00,33.5,17.8,30.14,West,269,5.5,7.7,52,0.00,,,0.00,359.00,VWS V14.01,2013-03-03 20:29:00,
2013-03-03 14:31:00,33.4,17.7,30.14,NW,316,6.6,8.8,52,0.00,,,0.00,301.00,VWS V14.01,2013-03-03 20:31:00,
2013-03-03 14:33:00,33.7,18.8,30.14,NNW,337,3.3,4.4,54,0.00,,,0.00,401.00,VWS V14.01,2013-03-03 20:33:00,
2013-03-03 14:34:00,33.6,17.9,30.14,NW,305,12.1,12.1,52,0.00,,,0.00,394.00,VWS V14.01,2013-03-03 20:34:00,
2013-03-03 14:35:00,33.6,17.9,30.14,WNW,295,6.6,9.9,52,0.00,,,0.00,492.00,VWS V14.01,2013-03-03 20:35:00,
2013-03-03 14:37:00,33.3,17.6,30.14,West,260,6.6,6.6,52,0.00,,,0.00,394.00,VWS V14.01,2013-03-03 20:37:00,
2013-03-03 14:38:00,33.2,17.0,30.13,WNW,285,6.6,9.9,51,0.00,,,0.00,352.00,VWS V14.01,2013-03-03 20:38:00,
2013-03-03 14:40:00,33.4,18.1,30.14,WNW,284,5.5,6.6,53,0.00,,,0.00,237.00,VWS V14.01,2013-03-03 20:40:00,
2013-03-03 14:41:00,33.4,17.7,30.14,WNW,286,7.7,7.7,52,0.00,,,0.00,237.00,VWS V14.01,2013-03-03 20:41:00,
2013-03-03 14:42:00,33.3,17.6,30.14,West,280,3.3,5.5,52,0.00,,,0.00,227.00,VWS V14.01,2013-03-03 20:42:00,
2013-03-03 14:43:00,33.2,17.0,30.14,WNW,303,5.5,5.5,51,0.00,,,0.00,260.00,VWS V14.01,2013-03-03 20:43:00,
2013-03-03 14:45:00,33.3,18.5,30.14,WNW,293,7.7,7.7,54,0.00,,,0.00,223.00,VWS V14.01,2013-03-03 20:45:00,
2013-03-03 14:46:00,33.4,19.0,30.14,West,278,3.3,7.7,55,0.00,,,0.00,188.00,VWS V14.01,2013-03-03 20:46:00,
2013-03-03 14:48:00,33.4,17.7,30.14,WNW,298,7.7,8.8,52,0.00,,,0.00,113.00,VWS V14.01,2013-03-03 20:48:00,
2013-03-03 14:50:00,33.3,17.1,30.14,NW,308,5.5,6.6,51,0.00,,,0.00,123.00,VWS V14.01,2013-03-03 20:50:00,
2013-03-03 14:51:00,33.3,17.6,30.14,NW,323,6.6,6.6,52,0.00,,,0.00,98.00,VWS V14.01,2013-03-03 20:51:00,
2013-03-03 14:53:00,33.2,17.0,30.14,WNW,303,4.4,6.6,51,0.00,,,0.00,91.00,VWS V14.01,2013-03-03 20:53:00,
2013-03-03 14:55:00,32.8,16.2,30.14,WNW,301,1.1,1.1,50,0.00,,,0.00,113.00,VWS V14.01,2013-03-03 20:55:00,
2013-03-03 14:57:00,32.8,16.7,30.14,WNW,293,2.2,3.3,51,0.00,,,0.00,118.00,VWS V14.01,2013-03-03 20:57:00,
2013-03-03 14:58:00,32.7,16.6,30.14,NW,310,2.2,4.4,51,0.00,,,0.00,95.00,VWS V14.01,2013-03-03 20:58:00,
2013-03-03 14:59:00,32.6,16.5,30.14,NW,310,2.2,2.2,51,0.00,,,0.00,79.00,VWS V14.01,2013-03-03 20:59:00,
2013-03-03 15:02:00,33.0,17.8,30.14,WNW,294,5.5,6.6,53,0.00,,,0.00,65.00,VWS V14.01,2013-03-03 21:02:00,
2013-03-03 15:03:00,33.3,17.1,30.14,West,280,6.6,6.6,51,0.00,,,0.00,93.00,VWS V14.01,2013-03-03 21:03:00,
2013-03-03 15:04:00,33.3,16.7,30.14,WNW,293,6.6,6.6,50,0.00,,,0.00,93.00,VWS V14.01,2013-03-03 21:04:00,
2013-03-03 15:07:00,33.0,16.4,30.14,NW,304,2.2,5.5,50,0.00,,,0.00,58.00,VWS V14.01,2013-03-03 21:07:00,
2013-03-03 15:09:00,33.0,16.9,30.14,West,268,5.5,7.7,51,0.00,,,0.00,95.00,VWS V14.01,2013-03-03 21:09:00,
2013-03-03 15:12:00,33.2,17.9,30.14,WNW,286,5.5,5.5,53,0.00,,,0.00,146.00,VWS V14.01,2013-03-03 21:12:00,
2013-03-03 15:13:00,33.2,17.9,30.14,NW,307,12.1,12.1,53,0.00,,,0.00,130.00,VWS V14.01,2013-03-03 21:13:00,
2013-03-03 15:14:00,33.3,17.6,30.14,WNW,303,7.7,11.0,52,0.00,,,0.00,79.00,VWS V14.01,2013-03-03 21:14:00,
2013-03-03 15:17:00,32.9,17.2,30.14,WNW,288,6.6,6.6,52,0.00,,,0.00,111.00,VWS V14.01,2013-03-03 21:17:00,
2013-03-03 15:18:00,32.9,18.1,30.14,NW,318,5.5,5.5,54,0.00,,,0.00,97.00,VWS V14.01,2013-03-03 21:18:00,
2013-03-03 15:19:00,33.0,18.2,30.14,WNW,301,4.4,5.5,54,0.00,,,0.00,81.00,VWS V14.01,2013-03-03 21:19:00,
2013-03-03 15:20:00,33.0,18.2,30.14,WNW,283,4.4,6.6,54,0.00,,,0.00,104.00,VWS V14.01,2013-03-03 21:20:00,
2013-03-03 15:22:00,33.1,17.4,30.14,West,261,4.4,5.5,52,0.00,,,0.00,132.00,VWS V14.01,2013-03-03 21:22:00,
2013-03-03 15:24:00,33.1,17.4,30.14,WNW,294,3.3,4.4,52,0.00,,,0.00,98.00,VWS V14.01,2013-03-03 21:24:00,
2013-03-03 15:25:00,33.1,17.4,30.14,West,260,4.4,4.4,52,0.00,,,0.00,127.00,VWS V14.01,2013-03-03 21:25:00,
2013-03-03 15:27:00,33.1,17.4,30.13,West,272,7.7,11.0,52,0.00,,,0.00,132.00,VWS V14.01,2013-03-03 21:27:00,
2013-03-03 15:30:00,33.2,17.9,30.13,NNW,330,6.6,6.6,53,0.00,,,0.00,176.00,VWS V14.01,2013-03-03 21:30:00,
2013-03-03 15:31:00,33.2,17.9,30.14,NW,320,8.8,8.8,53,0.00,,,0.00,250.00,VWS V14.01,2013-03-03 21:31:00,
2013-03-03 15:33:00,33.1,17.4,30.14,NW,310,4.4,5.5,52,0.00,,,0.00,258.00,VWS V14.01,2013-03-03 21:33:00,
2013-03-03 15:35:00,33.0,16.9,30.14,WNW,289,8.8,8.8,51,0.00,,,0.00,209.00,VWS V14.01,2013-03-03 21:35:00,
2013-03-03 15:37:00,33.0,17.3,30.14,WNW,293,6.6,8.8,52,0.00,,,0.00,95.00,VWS V14.01,2013-03-03 21:37:00,
2013-03-03 15:38:00,33.0,16.9,30.14,West,280,4.4,4.4,51,0.00,,,0.00,63.00,VWS V14.01,2013-03-03 21:38:00,
2013-03-03 15:40:00,33.0,16.9,30.14,WSW,240,0.0,1.1,51,0.00,,,0.00,49.00,VWS V14.01,2013-03-03 21:40:00,
2013-03-03 15:41:00,33.0,16.9,30.14,WSW,240,0.0,1.1,51,0.00,,,0.00,47.00,VWS V14.01,2013-03-03 21:41:00,
2013-03-03 15:43:00,33.1,17.4,30.14,WNW,302,7.7,7.7,52,0.00,,,0.00,42.00,VWS V14.01,2013-03-03 21:43:00,
2013-03-03 15:44:00,33.2,17.5,30.14,West,280,4.4,4.4,52,0.00,,,0.00,121.00,VWS V14.01,2013-03-03 21:44:00,
2013-03-03 15:46:00,33.2,17.5,30.14,WNW,294,7.7,7.7,52,0.00,,,0.00,84.00,VWS V14.01,2013-03-03 21:46:00,
2013-03-03 15:47:00,33.3,18.5,30.14,NW,315,5.5,7.7,54,0.00,,,0.00,93.00,VWS V14.01,2013-03-03 21:47:00,
2013-03-03 15:48:00,33.4,17.7,30.14,NW,322,6.6,6.6,52,0.00,,,0.00,97.00,VWS V14.01,2013-03-03 21:48:00,
2013-03-03 15:49:00,33.4,17.2,30.14,WNW,289,9.9,9.9,51,0.00,,,0.00,102.00,VWS V14.01,2013-03-03 21:49:00,
2013-03-03 15:51:00,33.6,18.3,30.14,WNW,297,8.8,8.8,53,0.00,,,0.00,74.00,VWS V14.01,2013-03-03 21:51:00,
2013-03-03 15:52:00,33.6,18.3,30.14,WNW,297,5.5,8.8,53,0.00,,,0.00,70.00,VWS V14.01,2013-03-03 21:52:00,
2013-03-03 15:53:00,33.5,17.8,30.14,West,281,5.5,8.8,52,0.00,,,0.00,76.00,VWS V14.01,2013-03-03 21:53:00,
2013-03-03 15:56:00,33.2,17.0,30.14,NW,308,3.3,3.3,51,0.00,,,0.00,134.00,VWS V14.01,2013-03-03 21:56:00,
2013-03-03 15:57:00,33.2,17.5,30.14,WNW,299,4.4,5.5,52,0.00,,,0.00,69.00,VWS V14.01,2013-03-03 21:57:00,
2013-03-03 15:59:00,33.3,18.0,30.14,West,276,3.3,8.8,53,0.00,,,0.00,62.00,VWS V14.01,2013-03-03 21:59:00,
2013-03-03 16:01:00,33.4,18.1,30.14,WNW,287,3.3,6.6,53,0.00,,,0.00,95.00,VWS V14.01,2013-03-03 22:01:00,
2013-03-03 16:02:00,33.4,18.6,30.14,West,262,4.4,6.6,54,0.00,,,0.00,86.00,VWS V14.01,2013-03-03 22:02:00,
2013-03-03 16:04:00,33.4,18.1,30.14,WNW,289,5.5,7.7,53,0.00,,,0.00,79.00,VWS V14.01,2013-03-03 22:04:00,
2013-03-03 16:07:00,33.2,17.5,30.14,West,276,5.5,7.7,52,0.00,,,0.00,113.00,VWS V14.01,2013-03-03 22:07:00,
2013-03-03 16:09:00,33.3,17.6,30.14,WNW,288,5.5,8.8,52,0.00,,,0.00,139.00,VWS V14.01,2013-03-03 22:09:00,
2013-03-03 16:10:00,33.3,17.1,30.14,WNW,300,6.6,7.7,51,0.00,,,0.00,139.00,VWS V14.01,2013-03-03 22:10:00,
2013-03-03 16:12:00,33.0,16.9,30.14,WNW,286,4.4,5.5,51,0.00,,,0.00,79.00,VWS V14.01,2013-03-03 22:12:00,
2013-03-03 16:13:00,33.0,16.9,30.14,WNW,283,4.4,5.5,51,0.00,,,0.00,79.00,VWS V14.01,2013-03-03 22:13:00,
2013-03-03 16:14:00,32.9,17.2,30.14,West,276,4.4,6.6,52,0.00,,,0.00,40.00,VWS V14.01,2013-03-03 22:14:00,
2013-03-03 16:15:00,32.9,16.8,30.14,West,274,4.4,5.5,51,0.00,,,0.00,40.00,VWS V14.01,2013-03-03 22:15:00,
2013-03-03 16:18:00,32.9,16.8,30.14,West,264,5.5,6.6,51,0.00,,,0.00,104.00,VWS V14.01,2013-03-03 22:18:00,
2013-03-03 16:19:00,32.9,17.2,30.14,WNW,285,3.3,5.5,52,0.00,,,0.00,105.00,VWS V14.01,2013-03-03 22:19:00,
2013-03-03 16:20:00,33.1,17.0,30.14,West,280,5.5,5.5,51,0.00,,,0.00,72.00,VWS V14.01,2013-03-03 22:20:00,
2013-03-03 16:23:00,33.2,17.5,30.14,West,280,4.4,6.6,52,0.00,,,0.00,51.00,VWS V14.01,2013-03-03 22:23:00,
2013-03-03 16:24:00,33.1,17.0,30.14,West,280,8.8,8.8,51,0.00,,,0.00,60.00,VWS V14.01,2013-03-03 22:24:00,
2013-03-03 16:25:00,33.0,17.3,30.14,West,281,5.5,8.8,52,0.00,,,0.00,60.00,VWS V14.01,2013-03-03 22:25:00,
2013-03-03 16:27:00,33.0,17.3,30.14,WNW,303,4.4,5.5,52,0.00,,,0.00,67.00,VWS V14.01,2013-03-03 22:27:00,
2013-03-03 16:28:00,32.9,17.2,30.14,West,269,5.5,6.6,52,0.00,,,0.00,81.00,VWS V14.01,2013-03-03 22:28:00,
2013-03-03 16:30:00,32.9,17.2,30.14,West,259,7.7,7.7,52,0.00,,,0.00,123.00,VWS V14.01,2013-03-03 22:30:00,
2013-03-03 16:31:00,32.8,17.1,30.14,West,275,7.7,7.7,52,0.00,,,0.00,156.00,VWS V14.01,2013-03-03 22:31:00,
2013-03-03 16:32:00,32.8,17.1,30.13,West,270,5.5,7.7,52,0.00,,,0.00,156.00,VWS V14.01,2013-03-03 22:32:00,
2013-03-03 16:33:00,32.8,17.6,30.14,WNW,283,4.4,5.5,53,0.00,,,0.00,148.00,VWS V14.01,2013-03-03 22:33:00,
2013-03-03 16:35:00,32.8,18.4,30.14,West,266,8.8,8.8,55,0.00,,,0.00,102.00,VWS V14.01,2013-03-03 22:35:00,
2013-03-03 16:36:00,32.8,18.4,30.14,WNW,303,3.3,8.8,55,0.00,,,0.00,105.00,VWS V14.01,2013-03-03 22:36:00,
2013-03-03 16:37:00,32.7,17.9,30.14,WNW,293,11.0,11.0,54,0.00,,,0.00,44.00,VWS V14.01,2013-03-03 22:37:00,
2013-03-03 16:38:00,32.6,17.8,30.14,WNW,287,8.8,8.8,54,0.00,,,0.00,33.00,VWS V14.01,2013-03-03 22:38:00,
2013-03-03 16:40:00,32.5,18.6,30.14,WNW,301,5.5,5.5,56,0.00,,,0.00,97.00,VWS V14.01,2013-03-03 22:40:00,
2013-03-03 16:41:00,32.5,18.1,30.14,West,278,5.5,6.6,55,0.00,,,0.00,100.00,VWS V14.01,2013-03-03 22:41:00,
2013-03-03 16:42:00,32.6,18.7,30.14,NW,321,5.5,6.6,56,0.00,,,0.00,100.00,VWS V14.01,2013-03-03 22:42:00,
2013-03-03 16:43:00,32.6,18.7,30.14,NW,307,3.3,5.5,56,0.00,,,0.00,104.00,VWS V14.01,2013-03-03 22:43:00,
2013-03-03 16:46:00,32.6,17.8,30.14,WNW,290,4.4,6.6,54,0.00,,,0.00,90.00,VWS V14.01,2013-03-03 22:46:00,
2013-03-03 16:47:00,32.6,18.2,30.14,WNW,282,5.5,5.5,55,0.00,,,0.00,88.00,VWS V14.01,2013-03-03 22:47:00,
2013-03-03 16:49:00,32.5,18.1,30.14,WNW,284,6.6,7.7,55,0.00,,,0.00,100.00,VWS V14.01,2013-03-03 22:49:00,
2013-03-03 16:51:00,32.3,18.0,30.14,WNW,299,2.2,5.5,55,0.00,,,0.00,100.00,VWS V14.01,2013-03-03 22:51:00,
2013-03-03 16:52:00,32.3,18.0,30.14,West,274,4.4,6.6,55,0.00,,,0.00,98.00,VWS V14.01,2013-03-03 22:52:00,
2013-03-03 16:54:00,32.1,18.2,30.14,West,274,3.3,6.6,56,0.00,,,0.00,95.00,VWS V14.01,2013-03-03 22:54:00,
2013-03-03 16:56:00,32.0,18.1,30.14,WNW,298,5.5,5.5,56,0.00,,,0.00,84.00,VWS V14.01,2013-03-03 22:56:00,
2013-03-03 16:58:00,31.9,18.4,30.14,West,279,5.5,7.7,57,0.00,,,0.00,35.00,VWS V14.01,2013-03-03 22:58:00,
2013-03-03 17:00:00,31.8,17.9,30.14,WNW,301,3.3,6.6,56,0.00,,,0.00,26.00,VWS V14.01,2013-03-03 23:00:00,
2013-03-03 17:02:00,31.9,18.4,30.14,West,277,4.4,5.5,57,0.00,,,0.00,26.00,VWS V14.01,2013-03-03 23:02:00,
2013-03-03 17:03:00,31.9,18.4,30.14,WNW,283,4.4,5.5,57,0.00,,,0.00,26.00,VWS V14.01,2013-03-03 23:03:00,
2013-03-03 17:04:00,31.8,18.3,30.14,NW,304,5.5,5.5,57,0.00,,,0.00,25.00,VWS V14.01,2013-03-03 23:04:00,
2013-03-03 17:06:00,31.8,17.9,30.14,WNW,288,7.7,9.9,56,0.00,,,0.00,25.00,VWS V14.01,2013-03-03 23:06:00,
2013-03-03 17:07:00,31.7,17.8,30.14,WNW,298,5.5,7.7,56,0.00,,,0.00,25.00,VWS V14.01,2013-03-03 23:07:00,
2013-03-03 17:09:00,31.7,17.8,30.14,WNW,295,4.4,6.6,56,0.00,,,0.00,23.00,VWS V14.01,2013-03-03 23:09:00,
2013-03-03 17:10:00,31.7,17.8,30.14,WNW,291,4.4,7.7,56,0.00,,,0.00,23.00,VWS V14.01,2013-03-03 23:10:00,
2013-03-03 17:12:00,31.6,17.7,30.14,West,266,4.4,6.6,56,0.00,,,0.00,21.00,VWS V14.01,2013-03-03 23:12:00,
2013-03-03 17:14:00,31.5,17.6,30.14,WNW,300,4.4,4.4,56,0.00,,,0.00,21.00,VWS V14.01,2013-03-03 23:14:00,
2013-03-03 17:15:00,31.5,17.6,30.14,WNW,293,5.5,7.7,56,0.00,,,0.00,21.00,VWS V14.01,2013-03-03 23:15:00,
2013-03-03 17:17:00,31.4,17.9,30.14,NW,314,5.5,6.6,57,0.00,,,0.00,19.00,VWS V14.01,2013-03-03 23:17:00,
2013-03-03 17:18:00,31.4,17.5,30.14,NW,308,3.3,4.4,56,0.00,,,0.00,19.00,VWS V14.01,2013-03-03 23:18:00,
2013-03-03 17:19:00,31.2,17.8,30.14,WNW,287,3.3,4.4,57,0.00,,,0.00,18.00,VWS V14.01,2013-03-03 23:19:00,
2013-03-03 17:20:00,31.2,17.8,30.14,WNW,293,3.3,5.5,57,0.00,,,0.00,18.00,VWS V14.01,2013-03-03 23:20:00,
2013-03-03 17:22:00,31.1,17.7,30.14,WNW,285,4.4,6.6,57,0.00,,,0.00,16.00,VWS V14.01,2013-03-03 23:22:00,
2013-03-03 17:23:00,31.1,17.7,30.14,WNW,299,2.2,6.6,57,0.00,,,0.00,16.00,VWS V14.01,2013-03-03 23:23:00,
2013-03-03 17:24:00,31.0,17.6,30.14,NW,309,5.5,5.5,57,0.00,,,0.00,14.00,VWS V14.01,2013-03-03 23:24:00,
2013-03-03 17:26:00,31.0,17.6,30.14,NW,316,4.4,5.5,57,0.00,,,0.00,12.00,VWS V14.01,2013-03-03 23:26:00,
2013-03-03 17:27:00,30.9,18.3,30.14,NW,313,3.3,3.3,59,0.00,,,0.00,12.00,VWS V14.01,2013-03-03 23:27:00,
2013-03-03 17:28:00,30.9,18.3,30.14,NW,308,3.3,4.4,59,0.00,,,0.00,12.00,VWS V14.01,2013-03-03 23:28:00,
2013-03-03 17:29:00,30.8,17.8,30.14,WNW,288,4.4,4.4,58,0.00,,,0.00,11.00,VWS V14.01,2013-03-03 23:29:00,
2013-03-03 17:32:00,30.7,17.3,30.14,WNW,291,4.4,4.4,57,0.00,,,0.00,9.00,VWS V14.01,2013-03-03 23:32:00,
2013-03-03 17:33:00,30.7,17.7,30.14,WNW,292,4.4,6.6,58,0.00,,,0.00,9.00,VWS V14.01,2013-03-03 23:33:00,
2013-03-03 17:34:00,30.6,17.6,30.14,NW,304,5.5,5.5,58,0.00,,,0.00,7.00,VWS V14.01,2013-03-03 23:34:00,
2013-03-03 17:38:00,30.5,17.5,30.15,WNW,286,3.3,4.4,58,0.00,,,0.00,5.00,VWS V14.01,2013-03-03 23:38:00,
2013-03-03 17:39:00,30.5,17.9,30.15,WNW,289,2.2,3.3,59,0.00,,,0.00,5.00,VWS V14.01,2013-03-03 23:39:00,
2013-03-03 17:41:00,30.4,18.2,30.15,WNW,287,4.4,4.4,60,0.00,,,0.00,0.00,VWS V14.01,2013-03-03 23:41:00,
2013-03-03 17:43:00,30.3,18.1,30.15,WNW,303,2.2,5.5,60,0.00,,,0.00,0.00,VWS V14.01,2013-03-03 23:43:00,
2013-03-03 17:45:00,30.2,18.4,30.15,WNW,289,3.3,4.4,61,0.00,,,0.00,0.00,VWS V14.01,2013-03-03 23:45:00,
2013-03-03 17:46:00,30.2,18.4,30.15,WNW,296,4.4,5.5,61,0.00,,,0.00,0.00,VWS V14.01,2013-03-03 23:46:00,
2013-03-03 17:49:00,29.9,18.5,30.14,NW,311,3.3,3.3,62,0.00,,,0.00,0.00,VWS V14.01,2013-03-03 23:49:00,
2013-03-03 17:50:00,29.8,18.4,30.15,WNW,301,4.4,5.5,62,0.00,,,0.00,0.00,VWS V14.01,2013-03-03 23:50:00,
2013-03-03 17:51:00,29.8,18.4,30.14,NW,305,3.3,4.4,62,0.00,,,0.00,0.00,VWS V14.01,2013-03-03 23:51:00,
2013-03-03 17:54:00,29.6,17.8,30.15,WNW,303,2.2,4.4,61,0.00,,,0.00,0.00,VWS V14.01,2013-03-03 23:54:00,
2013-03-03 17:55:00,29.6,18.2,30.14,WNW,298,3.3,4.4,62,0.00,,,0.00,0.00,VWS V14.01,2013-03-03 23:55:00,
2013-03-03 17:56:00,29.6,17.8,30.15,NW,308,4.4,5.5,61,0.00,,,0.00,0.00,VWS V14.01,2013-03-03 23:56:00,
2013-03-03 17:59:00,29.4,18.0,30.15,WNW,293,5.5,5.5,62,0.00,,,0.00,0.00,VWS V14.01,2013-03-03 23:59:00,
2013-03-03 18:00:00,29.4,18.0,30.15,NW,308,2.2,5.5,62,0.00,,,0.00,0.00,VWS V14.01,2013-03-04 00:00:00,
2013-03-03 18:01:00,29.4,18.0,30.14,WNW,296,4.4,5.5,62,0.00,,,0.00,0.00,VWS V14.01,2013-03-04 00:01:00,
2013-03-03 18:05:00,29.3,17.9,30.14,WNW,302,4.4,5.5,62,0.00,,,0.00,0.00,VWS V14.01,2013-03-04 00:05:00,
2013-03-03 18:06:00,29.3,18.3,30.14,NW,306,2.2,2.2,63,0.00,,,0.00,0.00,VWS V14.01,2013-03-04 00:06:00,
2013-03-03 18:07:00,29.3,18.3,30.14,NW,312,4.4,4.4,63,0.00,,,0.00,0.00,VWS V14.01,2013-03-04 00:07:00,
2013-03-03 18:10:00,29.1,18.1,30.15,WNW,297,2.2,3.3,63,0.00,,,0.00,0.00,VWS V14.01,2013-03-04 00:10:00,
2013-03-03 18:12:00,29.1,18.5,30.15,WNW,301,3.3,3.3,64,0.00,,,0.00,0.00,VWS V14.01,2013-03-04 00:12:00,
2013-03-03 18:15:00,29.0,18.4,30.15,WNW,302,2.2,2.2,64,0.00,,,0.00,0.00,VWS V14.01,2013-03-04 00:15:00,
2013-03-03 18:17:00,29.0,18.4,30.14,WNW,299,2.2,2.2,64,0.00,,,0.00,0.00,VWS V14.01,2013-03-04 00:17:00,
2013-03-03 18:18:00,29.0,18.4,30.15,WNW,299,2.2,2.2,64,0.00,,,0.00,0.00,VWS V14.01,2013-03-04 00:18:00,
2013-03-03 18:21:00,28.8,18.2,30.15,WNW,299,2.2,2.2,64,0.00,,,0.00,0.00,VWS V14.01,2013-03-04 00:21:00,
2013-03-03 18:23:00,28.8,18.2,30.15,WNW,297,1.1,2.2,64,0.00,,,0.00,0.00,VWS V14.01,2013-03-04 00:23:00,
2013-03-03 18:25:00,28.8,18.2,30.15,WNW,299,2.2,2.2,64,0.00,,,0.00,0.00,VWS V14.01,2013-03-04 00:25:00,
2013-03-03 18:26:00,28.8,18.5,30.15,WNW,300,1.1,1.1,65,0.00,,,0.00,0.00,VWS V14.01,2013-03-04 00:26:00,
2013-03-03 18:28:00,28.7,18.4,30.15,WNW,300,3.3,3.3,65,0.00,,,0.00,0.00,VWS V14.01,2013-03-04 00:28:00,
2013-03-03 18:30:00,28.6,18.7,30.15,NW,304,2.2,3.3,66,0.00,,,0.00,0.00,VWS V14.01,2013-03-04 00:30:00,
2013-03-03 18:32:00,28.6,18.7,30.15,NW,309,2.2,4.4,66,0.00,,,0.00,0.00,VWS V14.01,2013-03-04 00:32:00,
2013-03-03 18:33:00,28.4,18.5,30.15,NW,314,0.0,1.1,66,0.00,,,0.00,0.00,VWS V14.01,2013-03-04 00:33:00,
2013-03-03 18:34:00,28.3,18.8,30.15,NW,308,2.2,2.2,67,0.00,,,0.00,0.00,VWS V14.01,2013-03-04 00:34:00,
2013-03-03 18:36:00,28.2,18.7,30.15,NW,305,2.2,3.3,67,0.00,,,0.00,0.00,VWS V14.01,2013-03-04 00:36:00,
2013-03-03 18:37:00,28.1,18.9,30.15,NW,305,2.2,2.2,68,0.00,,,0.00,0.00,VWS V14.01,2013-03-04 00:37:00,
2013-03-03 18:39:00,28.1,18.9,30.15,NW,304,1.1,3.3,68,0.00,,,0.00,0.00,VWS V14.01,2013-03-04 00:39:00,
2013-03-03 18:41:00,27.9,18.7,30.15,NW,309,3.3,4.4,68,0.00,,,0.00,0.00,VWS V14.01,2013-03-04 00:41:00,
2013-03-03 18:42:00,27.9,18.7,30.15,NW,308,2.2,2.2,68,0.00,,,0.00,0.00,VWS V14.01,2013-03-04 00:42:00,
2013-03-03 18:45:00,27.8,19.0,30.15,NW,308,0.0,2.2,69,0.00,,,0.00,0.00,VWS V14.01,2013-03-04 00:45:00,
2013-03-03 18:47:00,27.7,18.9,30.15,NW,308,2.2,2.2,69,0.00,,,0.00,0.00,VWS V14.01,2013-03-04 00:47:00,
2013-03-03 18:48:00,27.7,18.9,30.15,NW,308,2.2,2.2,69,0.00,,,0.00,0.00,VWS V14.01,2013-03-04 00:48:00,
2013-03-03 18:50:00,27.5,19.4,30.15,NW,325,2.2,3.3,71,0.00,,,0.00,0.00,VWS V14.01,2013-03-04 00:50:00,
2013-03-03 18:51:00,27.4,19.2,30.15,NNW,328,1.1,3.3,71,0.00,,,0.00,0.00,VWS V14.01,2013-03-04 00:51:00,
2013-03-03 18:53:00,27.2,19.1,30.15,NNW,328,0.0,2.2,71,0.00,,,0.00,0.00,VWS V14.01,2013-03-04 00:53:00,
2013-03-03 18:56:00,27.0,19.2,30.15,NE,37,1.1,3.3,72,0.00,,,0.00,0.00,VWS V14.01,2013-03-04 00:56:00,
2013-03-03 18:58:00,26.9,19.1,30.15,NE,37,0.0,2.2,72,0.00,,,0.00,0.00,VWS V14.01,2013-03-04 00:58:00,
2013-03-03 18:59:00,26.9,19.4,30.15,NE,37,2.2,2.2,73,0.00,,,0.00,0.00,VWS V14.01,2013-03-04 00:59:00,
2013-03-03 19:01:00,26.9,19.4,30.15,NE,37,0.0,0.0,73,0.00,,,0.00,0.00,VWS V14.01,2013-03-04 01:01:00,
2013-03-03 19:02:00,26.8,19.3,30.15,NE,37,1.1,1.1,73,0.00,,,0.00,0.00,VWS V14.01,2013-03-04 01:02:00,
2013-03-03 19:04:00,26.6,19.1,30.15,NE,37,1.1,2.2,73,0.00,,,0.00,0.00,VWS V14.01,2013-03-04 01:04:00,
2013-03-03 19:07:00,26.5,19.0,30.15,NE,37,0.0,1.1,73,0.00,,,0.00,0.00,VWS V14.01,2013-03-04 01:07:00,
2013-03-03 19:09:00,26.5,19.0,30.15,NE,37,0.0,0.0,73,0.00,,,0.00,0.00,VWS V14.01,2013-03-04 01:09:00,
2013-03-03 19:13:00,26.4,19.2,30.16,NE,37,1.1,2.2,74,0.00,,,0.00,0.00,VWS V14.01,2013-03-04 01:13:00,
2013-03-03 19:15:00,26.3,19.1,30.16,NE,38,0.0,0.0,74,0.00,,,0.00,0.00,VWS V14.01,2013-03-04 01:15:00,
2013-03-03 19:16:00,26.3,19.1,30.16,NE,38,0.0,1.1,74,0.00,,,0.00,0.00,VWS V14.01,2013-03-04 01:16:00,
2013-03-03 19:18:00,26.3,19.5,30.15,NE,38,3.3,4.4,75,0.00,,,0.00,0.00,VWS V14.01,2013-03-04 01:18:00,
2013-03-03 19:20:00,26.2,19.4,30.16,NE,39,2.2,2.2,75,0.00,,,0.00,0.00,VWS V14.01,2013-03-04 01:20:00,
2013-03-03 19:21:00,26.2,19.4,30.16,NE,39,1.1,2.2,75,0.00,,,0.00,0.00,VWS V14.01,2013-03-04 01:21:00,
2013-03-03 19:23:00,26.1,19.6,30.16,NE,39,0.0,2.2,76,0.00,,,0.00,0.00,VWS V14.01,2013-03-04 01:23:00,
2013-03-03 19:24:00,26.1,19.6,30.16,NE,39,2.2,2.2,76,0.00,,,0.00,0.00,VWS V14.01,2013-03-04 01:24:00,
2013-03-03 19:26:00,26.1,19.6,30.16,NE,39,2.2,2.2,76,0.00,,,0.00,0.00,VWS V14.01,2013-03-04 01:26:00,
2013-03-03 19:28:00,26.1,19.6,30.16,NE,49,1.1,3.3,76,0.00,,,0.00,0.00,VWS V14.01,2013-03-04 01:28:00,
2013-03-03 19:29:00,26.1,19.6,30.16,NE,49,3.3,3.3,76,0.00,,,0.00,0.00,VWS V14.01,2013-03-04 01:29:00,
2013-03-03 19:31:00,26.0,19.5,30.16,NE,52,1.1,3.3,76,0.00,,,0.00,0.00,VWS V14.01,2013-03-04 01:31:00,
2013-03-03 19:33:00,26.0,19.5,30.16,NE,51,1.1,1.1,76,0.00,,,0.00,0.00,VWS V14.01,2013-03-04 01:33:00,
2013-03-03 19:34:00,26.0,19.5,30.16,NE,51,3.3,3.3,76,0.00,,,0.00,0.00,VWS V14.01,2013-03-04 01:34:00,
2013-03-03 19:37:00,26.0,19.5,30.16,NE,52,2.2,3.3,76,0.00,,,0.00,0.00,VWS V14.01,2013-03-04 01:37:00,
2013-03-03 19:39:00,25.8,19.3,30.16,NE,50,0.0,1.1,76,0.00,,,0.00,0.00,VWS V14.01,2013-03-04 01:39:00,
2013-03-03 19:40:00,25.7,19.2,30.16,NE,50,1.1,1.1,76,0.00,,,0.00,0.00,VWS V14.01,2013-03-04 01:40:00,
2013-03-03 19:42:00,25.6,19.4,30.16,NE,52,0.0,3.3,77,0.00,,,0.00,0.00,VWS V14.01,2013-03-04 01:42:00,
2013-03-03 19:45:00,25.4,19.2,30.16,NE,39,4.4,4.4,77,0.00,,,0.00,0.00,VWS V14.01,2013-03-04 01:45:00,
2013-03-03 19:48:00,25.3,19.1,30.16,NE,54,3.3,5.5,77,0.00,,,0.00,0.00,VWS V14.01,2013-03-04 01:48:00,
2013-03-03 19:50:00,25.3,19.1,30.16,NE,50,2.2,6.6,77,0.00,,,0.00,0.00,VWS V14.01,2013-03-04 01:50:00,
2013-03-03 19:51:00,25.3,19.1,30.16,NE,51,3.3,3.3,77,0.00,,,0.00,0.00,VWS V14.01,2013-03-04 01:51:00,
2013-03-03 19:53:00,25.3,19.1,30.16,NE,56,2.2,6.6,77,0.00,,,0.00,0.00,VWS V14.01,2013-03-04 01:53:00,
2013-03-03 19:54:00,25.3,19.1,30.16,NE,56,3.3,3.3,77,0.00,,,0.00,0.00,VWS V14.01,2013-03-04 01:54:00,
2013-03-03 19:56:00,25.3,19.1,30.16,NE,56,1.1,2.2,77,0.00,,,0.00,0.00,VWS V14.01,2013-03-04 01:56:00,
2013-03-03 19:58:00,25.3,19.1,30.16,NE,46,1.1,3.3,77,0.00,,,0.00,0.00,VWS V14.01,2013-03-04 01:58:00,
2013-03-03 19:59:00,25.3,19.1,30.16,NE,45,2.2,5.5,77,0.00,,,0.00,0.00,VWS V14.01,2013-03-04 01:59:00,
2013-03-03 20:01:00,25.3,18.8,30.16,NE,48,3.3,3.3,76,0.00,,,0.00,0.00,VWS V14.01,2013-03-04 02:01:00,
2013-03-03 20:02:00,25.3,18.8,30.16,NE,47,2.2,4.4,76,0.00,,,0.00,0.00,VWS V14.01,2013-03-04 02:02:00,
2013-03-03 20:04:00,25.2,18.7,30.16,NE,48,4.4,4.4,76,0.00,,,0.00,0.00,VWS V14.01,2013-03-04 02:04:00,
2013-03-03 20:06:00,25.2,18.7,30.16,NE,46,1.1,3.3,76,0.00,,,0.00,0.00,VWS V14.01,2013-03-04 02:06:00,
2013-03-03 20:07:00,25.2,18.7,30.16,NE,48,1.1,1.1,76,0.00,,,0.00,0.00,VWS V14.01,2013-03-04 02:07:00,
2013-03-03 20:09:00,25.1,18.9,30.16,NE,51,2.2,4.4,77,0.00,,,0.00,0.00,VWS V14.01,2013-03-04 02:09:00,
2013-03-03 20:10:00,25.1,18.9,30.16,NE,51,2.2,4.4,77,0.00,,,0.00,0.00,VWS V14.01,2013-03-04 02:10:00,
2013-03-03 20:11:00,25.1,18.9,30.16,NE,47,3.3,3.3,77,0.00,,,0.00,0.00,VWS V14.01,2013-03-04 02:11:00,
2013-03-03 20:13:00,25.0,18.8,30.16,NE,50,1.1,3.3,77,0.00,,,0.00,0.00,VWS V14.01,2013-03-04 02:13:00,
2013-03-03 20:15:00,25.1,18.9,30.16,NE,52,3.3,4.4,77,0.00,,,0.00,0.00,VWS V14.01,2013-03-04 02:15:00,
2013-03-03 20:17:00,24.9,18.7,30.16,NE,52,1.1,2.2,77,0.00,,,0.00,0.00,VWS V14.01,2013-03-04 02:17:00,
2013-03-03 20:18:00,24.9,18.7,30.16,NE,52,2.2,2.2,77,0.00,,,0.00,0.00,VWS V14.01,2013-03-04 02:18:00,
2013-03-03 20:20:00,24.9,18.7,30.17,NE,49,1.1,3.3,77,0.00,,,0.00,0.00,VWS V14.01,2013-03-04 02:20:00,
2013-03-03 20:22:00,24.7,18.8,30.17,NE,49,2.2,2.2,78,0.00,,,0.00,0.00,VWS V14.01,2013-03-04 02:22:00,
2013-03-03 20:23:00,24.7,18.8,30.17,NE,49,0.0,2.2,78,0.00,,,0.00,0.00,VWS V14.01,2013-03-04 02:23:00,
2013-03-03 20:25:00,24.6,18.7,30.16,NE,47,2.2,2.2,78,0.00,,,0.00,0.00,VWS V14.01,2013-03-04 02:25:00,
2013-03-03 20:26:00,24.6,18.7,30.16,NE,47,1.1,2.2,78,0.00,,,0.00,0.00,VWS V14.01,2013-03-04 02:26:00,
2013-03-03 20:28:00,24.5,18.6,30.17,NE,48,2.2,2.2,78,0.00,,,0.00,0.00,VWS V14.01,2013-03-04 02:28:00,
2013-03-03 20:31:00,24.4,18.5,30.17,ENE,63,1.1,1.1,78,0.00,,,0.00,0.00,VWS V14.01,2013-03-04 02:31:00,
2013-03-03 20:33:00,24.3,18.4,30.16,ENE,63,0.0,1.1,78,0.00,,,0.00,0.00,VWS V14.01,2013-03-04 02:33:00,
2013-03-03 20:36:00,24.2,18.3,30.16,ENE,64,1.1,1.1,78,0.00,,,0.00,0.00,VWS V14.01,2013-03-04 02:36:00,
2013-03-03 20:38:00,24.2,18.6,30.16,ENE,64,1.1,2.2,79,0.00,,,0.00,0.00,VWS V14.01,2013-03-04 02:38:00,
2013-03-03 20:39:00,24.2,18.6,30.16,ENE,64,0.0,1.1,79,0.00,,,0.00,0.00,VWS V14.01,2013-03-04 02:39:00,
2013-03-03 20:42:00,24.1,18.2,30.16,ENE,64,0.0,2.2,78,0.00,,,0.00,0.00,VWS V14.01,2013-03-04 02:42:00,
2013-03-03 20:43:00,24.0,18.5,30.16,ENE,64,0.0,2.2,79,0.00,,,0.00,0.00,VWS V14.01,2013-03-04 02:43:00,
2013-03-03 20:44:00,23.9,18.4,30.16,ENE,64,0.0,0.0,79,0.00,,,0.00,0.00,VWS V14.01,2013-03-04 02:44:00,
2013-03-03 20:47:00,23.8,18.2,30.17,ENE,64,1.1,1.1,79,0.00,,,0.00,0.00,VWS V14.01,2013-03-04 02:47:00,
2013-03-03 20:48:00,23.7,18.1,30.17,ENE,64,0.0,1.1,79,0.00,,,0.00,0.00,VWS V14.01,2013-03-04 02:48:00,
2013-03-03 20:50:00,23.7,18.1,30.17,ENE,64,1.1,2.2,79,0.00,,,0.00,0.00,VWS V14.01,2013-03-04 02:50:00,
2013-03-03 20:53:00,23.6,18.1,30.17,ENE,64,0.0,0.0,79,0.00,,,0.00,0.00,VWS V14.01,2013-03-04 02:53:00,
2013-03-03 20:54:00,23.5,18.0,30.17,ENE,64,0.0,1.1,79,0.00,,,0.00,0.00,VWS V14.01,2013-03-04 02:54:00,
2013-03-03 20:56:00,23.4,18.1,30.17,ENE,64,0.0,1.1,80,0.00,,,0.00,0.00,VWS V14.01,2013-03-04 02:56:00,
2013-03-03 20:58:00,23.4,18.1,30.17,ENE,64,0.0,1.1,80,0.00,,,0.00,0.00,VWS V14.01,2013-03-04 02:58:00,
2013-03-03 21:00:00,23.3,18.1,30.17,ENE,64,0.0,1.1,80,0.00,,,0.00,0.00,VWS V14.01,2013-03-04 03:00:00,
2013-03-03 21:01:00,23.3,18.3,30.17,ENE,64,0.0,0.0,81,0.00,,,0.00,0.00,VWS V14.01,2013-03-04 03:01:00,
2013-03-03 21:04:00,23.3,18.3,30.17,ENE,64,1.1,2.2,81,0.00,,,0.00,0.00,VWS V14.01,2013-03-04 03:04:00,
2013-03-03 21:05:00,23.1,18.1,30.17,ENE,64,0.0,0.0,81,0.00,,,0.00,0.00,VWS V14.01,2013-03-04 03:05:00,
2013-03-03 21:07:00,22.9,18.0,30.17,ENE,64,0.0,0.0,81,0.00,,,0.00,0.00,VWS V14.01,2013-03-04 03:07:00,
2013-03-03 21:09:00,22.7,18.0,30.17,ENE,64,0.0,0.0,82,0.00,,,0.00,0.00,VWS V14.01,2013-03-04 03:09:00,
2013-03-03 21:10:00,22.7,18.0,30.17,ENE,64,0.0,0.0,82,0.00,,,0.00,0.00,VWS V14.01,2013-03-04 03:10:00,
2013-03-03 21:12:00,22.5,17.9,30.17,ENE,64,3.3,3.3,82,0.00,,,0.00,0.00,VWS V14.01,2013-03-04 03:12:00,
2013-03-03 21:15:00,22.4,18.0,30.17,ENE,64,1.1,3.3,83,0.00,,,0.00,0.00,VWS V14.01,2013-03-04 03:15:00,
2013-03-03 21:16:00,22.4,18.0,30.17,ENE,64,2.2,2.2,83,0.00,,,0.00,0.00,VWS V14.01,2013-03-04 03:16:00,
2013-03-03 21:17:00,22.4,18.0,30.16,ENE,64,0.0,0.0,83,0.00,,,0.00,0.00,VWS V14.01,2013-03-04 03:17:00,
2013-03-03 21:20:00,22.6,18.2,30.16,ENE,63,0.0,2.2,83,0.00,,,0.00,0.00,VWS V14.01,2013-03-04 03:20:00,
2013-03-03 21:21:00,22.6,18.2,30.17,ENE,64,0.0,0.0,83,0.00,,,0.00,0.00,VWS V14.01,2013-03-04 03:21:00,
2013-03-03 21:22:00,22.6,18.2,30.17,ENE,64,1.1,1.1,83,0.00,,,0.00,0.00,VWS V14.01,2013-03-04 03:22:00,
2013-03-03 21:26:00,22.6,17.9,30.16,ENE,64,1.1,1.1,82,0.00,,,0.00,0.00,VWS V14.01,2013-03-04 03:26:00,
2013-03-03 21:28:00,22.5,17.9,30.16,ENE,64,0.0,2.2,82,0.00,,,0.00,0.00,VWS V14.01,2013-03-04 03:28:00,
2013-03-03 21:31:00,22.5,17.9,30.16,ENE,64,2.2,2.2,82,0.00,,,0.00,0.00,VWS V14.01,2013-03-04 03:31:00,
2013-03-03 21:32:00,22.5,17.9,30.16,ENE,64,1.1,2.2,82,0.00,,,0.00,0.00,VWS V14.01,2013-03-04 03:32:00,
2013-03-03 21:33:00,22.5,17.9,30.16,ENE,64,2.2,2.2,82,0.00,,,0.00,0.00,VWS V14.01,2013-03-04 03:33:00,
2013-03-03 21:36:00,22.5,17.9,30.16,ENE,64,2.2,2.2,82,0.00,,,0.00,0.00,VWS V14.01,2013-03-04 03:36:00,
2013-03-03 21:37:00,22.5,17.9,30.16,ENE,64,2.2,4.4,82,0.00,,,0.00,0.00,VWS V14.01,2013-03-04 03:37:00,
2013-03-03 21:38:00,22.5,17.9,30.16,ENE,64,2.2,4.4,82,0.00,,,0.00,0.00,VWS V14.01,2013-03-04 03:38:00,
2013-03-03 21:41:00,22.6,17.9,30.16,ENE,64,1.1,1.1,82,0.00,,,0.00,0.00,VWS V14.01,2013-03-04 03:41:00,
2013-03-03 21:43:00,22.6,17.7,30.16,ENE,64,0.0,1.1,81,0.00,,,0.00,0.00,VWS V14.01,2013-03-04 03:43:00,
2013-03-03 21:44:00,22.6,17.9,30.16,ENE,64,2.2,2.2,82,0.00,,,0.00,0.00,VWS V14.01,2013-03-04 03:44:00,
2013-03-03 21:47:00,22.6,17.7,30.16,ENE,64,0.0,1.1,81,0.00,,,0.00,0.00,VWS V14.01,2013-03-04 03:47:00,
2013-03-03 21:48:00,22.6,17.7,30.16,ENE,64,1.1,2.2,81,0.00,,,0.00,0.00,VWS V14.01,2013-03-04 03:48:00,
2013-03-03 21:49:00,22.7,17.8,30.16,ENE,64,0.0,0.0,81,0.00,,,0.00,0.00,VWS V14.01,2013-03-04 03:49:00,
2013-03-03 21:51:00,22.7,17.8,30.16,ENE,64,0.0,0.0,81,0.00,,,0.00,0.00,VWS V14.01,2013-03-04 03:51:00,
2013-03-03 21:53:00,22.6,17.7,30.16,ENE,64,1.1,3.3,81,0.00,,,0.00,0.00,VWS V14.01,2013-03-04 03:53:00,
2013-03-03 21:54:00,22.6,17.7,30.16,ENE,64,1.1,2.2,81,0.00,,,0.00,0.00,VWS V14.01,2013-03-04 03:54:00,
2013-03-03 21:55:00,22.5,17.6,30.16,ENE,64,0.0,2.2,81,0.00,,,0.00,0.00,VWS V14.01,2013-03-04 03:55:00,
2013-03-03 21:56:00,22.5,17.6,30.16,ENE,64,0.0,0.0,81,0.00,,,0.00,0.00,VWS V14.01,2013-03-04 03:56:00,
2013-03-03 21:58:00,22.4,17.5,30.16,ENE,64,0.0,2.2,81,0.00,,,0.00,0.00,VWS V14.01,2013-03-04 03:58:00,
2013-03-03 22:00:00,22.4,17.8,30.17,ENE,64,0.0,2.2,82,0.00,,,0.00,0.00,VWS V14.01,2013-03-04 04:00:00,
2013-03-03 22:01:00,22.4,17.8,30.17,ENE,64,0.0,2.2,82,0.00,,,0.00,0.00,VWS V14.01,2013-03-04 04:01:00,
2013-03-03 22:02:00,22.4,17.8,30.17,ENE,64,0.0,1.1,82,0.00,,,0.00,0.00,VWS V14.01,2013-03-04 04:02:00,
2013-03-03 22:04:00,22.4,17.5,30.17,ENE,64,1.1,2.2,81,0.00,,,0.00,0.00,VWS V14.01,2013-03-04 04:04:00,
2013-03-03 22:06:00,22.3,17.4,30.17,ENE,64,1.1,2.2,81,0.00,,,0.00,0.00,VWS V14.01,2013-03-04 04:06:00,
2013-03-03 22:07:00,22.3,17.4,30.17,ENE,64,1.1,1.1,81,0.00,,,0.00,0.00,VWS V14.01,2013-03-04 04:07:00,
2013-03-03 22:09:00,22.1,17.5,30.17,ENE,64,1.1,1.1,82,0.00,,,0.00,0.00,VWS V14.01,2013-03-04 04:09:00,
2013-03-03 22:11:00,22.0,17.4,30.17,ENE,64,0.0,0.0,82,0.00,,,0.00,0.00,VWS V14.01,2013-03-04 04:11:00,
2013-03-03 22:12:00,22.0,17.4,30.17,ENE,64,0.0,0.0,82,0.00,,,0.00,0.00,VWS V14.01,2013-03-04 04:12:00,
2013-03-03 22:14:00,21.9,17.3,30.17,ENE,64,0.0,0.0,82,0.00,,,0.00,0.00,VWS V14.01,2013-03-04 04:14:00,
2013-03-03 22:17:00,21.8,17.2,30.17,ENE,64,0.0,0.0,82,0.00,,,0.00,0.00,VWS V14.01,2013-03-04 04:17:00,
2013-03-03 22:19:00,21.7,17.3,30.17,ENE,64,0.0,0.0,83,0.00,,,0.00,0.00,VWS V14.01,2013-03-04 04:19:00,
2013-03-03 22:22:00,21.8,17.4,30.17,ENE,64,0.0,0.0,83,0.00,,,0.00,0.00,VWS V14.01,2013-03-04 04:22:00,
2013-03-03 22:23:00,21.9,17.5,30.17,ENE,64,0.0,0.0,83,0.00,,,0.00,0.00,VWS V14.01,2013-03-04 04:23:00,
2013-03-03 22:25:00,22.2,17.8,30.17,ENE,64,0.0,0.0,83,0.00,,,0.00,0.00,VWS V14.01,2013-03-04 04:25:00,
2013-03-03 22:27:00,22.3,17.9,30.17,ENE,64,0.0,0.0,83,0.00,,,0.00,0.00,VWS V14.01,2013-03-04 04:27:00,
2013-03-03 22:28:00,22.3,17.9,30.17,ENE,64,0.0,0.0,83,0.00,,,0.00,0.00,VWS V14.01,2013-03-04 04:28:00,
2013-03-03 22:30:00,22.2,17.8,30.17,ENE,64,0.0,0.0,83,0.00,,,0.00,0.00,VWS V14.01,2013-03-04 04:30:00,
2013-03-03 22:33:00,22.1,17.7,30.18,ENE,64,0.0,0.0,83,0.00,,,0.00,0.00,VWS V14.01,2013-03-04 04:33:00,
2013-03-03 22:34:00,22.0,17.6,30.18,ENE,64,0.0,0.0,83,0.00,,,0.00,0.00,VWS V14.01,2013-03-04 04:34:00,
2013-03-03 22:35:00,21.8,17.4,30.18,ENE,64,0.0,0.0,83,0.00,,,0.00,0.00,VWS V14.01,2013-03-04 04:35:00,
2013-03-03 22:36:00,21.7,17.3,30.18,ENE,64,0.0,0.0,83,0.00,,,0.00,0.00,VWS V14.01,2013-03-04 04:36:00,
2013-03-03 22:39:00,21.4,17.3,30.18,ENE,64,0.0,0.0,84,0.00,,,0.00,0.00,VWS V14.01,2013-03-04 04:39:00,
2013-03-03 22:41:00,21.3,17.5,30.18,ENE,64,0.0,0.0,85,0.00,,,0.00,0.00,VWS V14.01,2013-03-04 04:41:00,
2013-03-03 22:44:00,21.4,17.6,30.18,ENE,64,0.0,0.0,85,0.00,,,0.00,0.00,VWS V14.01,2013-03-04 04:44:00,
2013-03-03 22:45:00,21.3,17.5,30.18,ENE,64,0.0,0.0,85,0.00,,,0.00,0.00,VWS V14.01,2013-03-04 04:45:00,
2013-03-03 22:46:00,21.2,17.4,30.18,ENE,64,0.0,0.0,85,0.00,,,0.00,0.00,VWS V14.01,2013-03-04 04:46:00,
2013-03-03 22:48:00,21.0,17.2,30.18,ENE,64,0.0,0.0,85,0.00,,,0.00,0.00,VWS V14.01,2013-03-04 04:48:00,
2013-03-03 22:50:00,20.8,17.0,30.18,ENE,64,0.0,0.0,85,0.00,,,0.00,0.00,VWS V14.01,2013-03-04 04:50:00,
2013-03-03 22:51:00,20.8,17.3,30.18,ENE,64,0.0,0.0,86,0.00,,,0.00,0.00,VWS V14.01,2013-03-04 04:51:00,
2013-03-03 22:54:00,20.7,17.2,30.18,ENE,64,0.0,0.0,86,0.00,,,0.00,0.00,VWS V14.01,2013-03-04 04:54:00,
2013-03-03 22:55:00,20.6,17.1,30.18,ENE,64,0.0,0.0,86,0.00,,,0.00,0.00,VWS V14.01,2013-03-04 04:55:00,
2013-03-03 22:56:00,20.6,17.1,30.18,ENE,64,0.0,0.0,86,0.00,,,0.00,0.00,VWS V14.01,2013-03-04 04:56:00,
2013-03-03 22:57:00,20.5,17.0,30.18,ENE,64,0.0,0.0,86,0.00,,,0.00,0.00,VWS V14.01,2013-03-04 04:57:00,
2013-03-03 22:59:00,20.5,17.0,30.18,ENE,64,0.0,0.0,86,0.00,,,0.00,0.00,VWS V14.01,2013-03-04 04:59:00,
2013-03-03 23:00:00,20.5,17.0,30.18,ENE,64,0.0,0.0,86,0.00,,,0.00,0.00,VWS V14.01,2013-03-04 05:00:00,
2013-03-03 23:01:00,20.6,17.4,30.18,ENE,64,0.0,0.0,87,0.00,,,0.00,0.00,VWS V14.01,2013-03-04 05:01:00,
2013-03-03 23:05:00,20.4,17.2,30.18,ENE,64,0.0,0.0,87,0.00,,,0.00,0.00,VWS V14.01,2013-03-04 05:05:00,
2013-03-03 23:06:00,20.5,17.2,30.18,ENE,64,0.0,0.0,87,0.00,,,0.00,0.00,VWS V14.01,2013-03-04 05:06:00,
2013-03-03 23:10:00,20.7,17.7,30.18,ENE,64,0.0,0.0,88,0.00,,,0.00,0.00,VWS V14.01,2013-03-04 05:10:00,
2013-03-03 23:11:00,20.7,17.7,30.18,ENE,64,0.0,0.0,88,0.00,,,0.00,0.00,VWS V14.01,2013-03-04 05:11:00,
2013-03-03 23:12:00,20.7,17.5,30.18,ENE,64,0.0,0.0,87,0.00,,,0.00,0.00,VWS V14.01,2013-03-04 05:12:00,
2013-03-03 23:16:00,20.7,17.7,30.18,ENE,64,0.0,0.0,88,0.00,,,0.00,0.00,VWS V14.01,2013-03-04 05:16:00,
2013-03-03 23:17:00,20.8,17.8,30.18,ENE,64,0.0,0.0,88,0.00,,,0.00,0.00,VWS V14.01,2013-03-04 05:17:00,
2013-03-03 23:22:00,20.7,17.7,30.18,ENE,64,0.0,0.0,88,0.00,,,0.00,0.00,VWS V14.01,2013-03-04 05:22:00,
2013-03-03 23:23:00,20.6,17.6,30.18,ENE,64,0.0,0.0,88,0.00,,,0.00,0.00,VWS V14.01,2013-03-04 05:23:00,
2013-03-03 23:27:00,20.8,17.8,30.18,ENE,65,0.0,0.0,88,0.00,,,0.00,0.00,VWS V14.01,2013-03-04 05:27:00,
2013-03-03 23:28:00,20.8,17.8,30.18,ENE,65,0.0,0.0,88,0.00,,,0.00,0.00,VWS V14.01,2013-03-04 05:28:00,
2013-03-03 23:32:00,20.7,17.7,30.18,ENE,65,0.0,0.0,88,0.00,,,0.00,0.00,VWS V14.01,2013-03-04 05:32:00,
2013-03-03 23:33:00,20.5,17.5,30.18,ENE,65,0.0,0.0,88,0.00,,,0.00,0.00,VWS V14.01,2013-03-04 05:33:00,
2013-03-03 23:34:00,20.4,17.4,30.18,ENE,65,0.0,0.0,88,0.00,,,0.00,0.00,VWS V14.01,2013-03-04 05:34:00,
2013-03-03 23:37:00,20.2,17.2,30.17,ENE,65,0.0,0.0,88,0.00,,,0.00,0.00,VWS V14.01,2013-03-04 05:37:00,
2013-03-03 23:38:00,20.1,17.1,30.17,ENE,65,0.0,0.0,88,0.00,,,0.00,0.00,VWS V14.01,2013-03-04 05:38:00,
2013-03-03 23:39:00,20.1,17.1,30.17,ENE,65,0.0,0.0,88,0.00,,,0.00,0.00,VWS V14.01,2013-03-04 05:39:00,
2013-03-03 23:43:00,20.0,17.3,30.17,ENE,65,0.0,0.0,89,0.00,,,0.00,0.00,VWS V14.01,2013-03-04 05:43:00,
2013-03-03 23:44:00,20.0,17.3,30.17,ENE,65,0.0,0.0,89,0.00,,,0.00,0.00,VWS V14.01,2013-03-04 05:44:00,
2013-03-03 23:48:00,20.0,17.3,30.17,ENE,65,0.0,1.1,89,0.00,,,0.00,0.00,VWS V14.01,2013-03-04 05:48:00,
2013-03-03 23:49:00,20.0,17.3,30.17,ENE,65,1.1,1.1,89,0.00,,,0.00,0.00,VWS V14.01,2013-03-04 05:49:00,
2013-03-03 23:50:00,20.0,17.3,30.17,ENE,65,0.0,2.2,89,0.00,,,0.00,0.00,VWS V14.01,2013-03-04 05:50:00,
2013-03-03 23:54:00,20.2,17.5,30.17,ENE,65,0.0,0.0,89,0.00,,,0.00,0.00,VWS V14.01,2013-03-04 05:54:00,
2013-03-03 23:55:00,20.3,17.8,30.17,ENE,65,0.0,0.0,90,0.00,,,0.00,0.00,VWS V14.01,2013-03-04 05:55:00,
2013-03-03 23:59:00,20.8,18.3,30.17,ENE,65,0.0,0.0,90,0.00,,,0.00,0.00,VWS V14.01,2013-03-04 05:59:00,